Preview of NWS' New Version of Forecast
This preview is not operational and should not be used for support decisions.
Latest weather observations around

INDEPENDENCE (KIDP)

Using International System of Units (Switch to English Units)
Date/ Time (CDT) Wind (kph) Vis. (km) Weather Sky Cond. Temp (°C) Rel. Humidity Wind Chill (°C) Heat Index (°C) Pressure Precip. (cm)
Air Dwpt 6 hour Altimeter (hPa) Sea level (hPa) 1 hr 3 hr 6 hr
Max Min
Jul 22 17:15 NNE 30 16.09 Mostly Cloudy BKN050 BKN060 29 17     49%   30 1019.64        
Jul 22 16:55 NNE 26 16.09 Clear   29 18     52%   30 1019.64        
Jul 22 16:35 NNE 31 16.09 Clear and Windy   29 18     50%   30 1019.64        
Jul 22 16:15 N 28 16.09 Clear   28 17     52%   28 1019.98        
Jul 22 15:55 N 26 16.09 Clear   29 18     50%   30 1020        
Jul 22 15:35 N 30 16.09 Partly Cloudy SCT050 SCT065 29 18     51%   30 1020.32        
Jul 22 15:15 NNE 33 16.09 Mostly Cloudy and Windy BKN050 29 18     51%   30 1020.3        
Jul 22 14:55 N 30 16.09 Clear CLR 29 17     49%   30 1020.32        
Jul 22 14:35 N 30 16.09 Clear CLR 29 17     50%   29 1020.32        
Jul 22 14:15 NNE 32 16.09 Clear and Windy CLR 29 17     48%   29 1020.3        
Jul 22 13:55 NE 33 16.09 Clear and Windy CLR 28 16     48%   28 1020.7        
Jul 22 13:35 NE 30 16.09 Clear CLR 28 17     51%   29 1020.66        
Jul 22 13:15 NNE 26 16.09 Clear CLR 28 17     51%   28 1020.66        
Jul 22 12:55 NNE 37 16.09 Clear and Windy CLR 27 16     49%   28 1020.7        
Jul 22 12:35 NNE 30 16.09 Clear CLR 27 16     51%   28 1020.66        
Jul 22 12:15 NNE 35 16.09 Clear and Windy CLR 27 17     55%   28 1020.7        
Jul 22 11:55 N 31 16.09 Partly Cloudy and Windy SCT037 26 18     60%   27 1020.66        
Jul 22 11:35 NNE 30 16.09 Clear CLR 27 18     60%   27 1020.32        
Jul 22 11:15 NNE 35 16.09 Partly Cloudy and Windy SCT032 26 19     63%   26 1020.32        
Jul 22 10:55 N 31 16.09 Mostly Cloudy and Windy BKN030 25 18     64%   26 1020.32        
Jul 22 10:35 NNE 37 16.09 Partly Cloudy and Windy SCT026 SCT031 25 19     70%   26 1019.98        
Jul 22 10:15 NNE 35 16.09 Partly Cloudy and Windy SCT024 SCT029 25 19     72%   25 1020        
Jul 22 09:55 NNE 30 16.09 Mostly Cloudy SCT019 BKN028 24 20     76%   25 1019.64        
Jul 22 09:35 N 30 16.09 Cloudy BKN017 OVC028 23 20     82%   24 1019.64        
Jul 22 09:15 N 28 16.09 Cloudy OVC015 23 20     84%   23 1019.64        
Jul 22 08:55 N 28 16.09 Cloudy OVC015 22 20     87%   23 1019.3        
Jul 22 08:35 N 22 16.09 Cloudy OVC015 23 20     86%   23 1019.3        
Jul 22 08:15 N 32 16.09 Cloudy and Windy BKN015 OVC021 23 21     87%   23 1019        
Jul 22 07:55 N 24 16.09 Cloudy SCT012 OVC019 23 20     88%   23 1018.63        
Jul 22 07:35 N 22 16.09 Cloudy OVC015 22 21     91%   23 1017.95        
Jul 22 07:15 N 24 16.09 Cloudy BKN012 OVC017 22 21     92%   23 1017.6        
Jul 22 06:55 N 22 16.09 Cloudy BKN010 BKN015 OVC049 22 21     93%   23 1017.61        
Jul 22 06:35 N 20 16.09 Cloudy SCT010 SCT021 OVC049 22 21     92%   23 1017.61        
Jul 22 06:15 N 24 16.09 Cloudy SCT011 BKN019 OVC060 22 21     92%   23 1017.3        
Jul 22 05:55 N 22 16.09 Cloudy SCT010 BKN016 OVC060 22 21     92%   23 1017.27        
Jul 22 05:35 N 20 16.09 Cloudy OVC014 22 21     93%   23 1016.93        
Jul 22 05:15 N 22 16.09 Cloudy BKN011 OVC024 22 21     93%   23 1016.9        
Jul 22 04:55 N 24 16.09 Cloudy BKN011 BKN020 OVC030 22 21     93%   23 1016.59        
Jul 22 04:35 N 26 16.09 Cloudy OVC009 22 21     94%   23 1016.26        
Jul 22 04:15 N 21 16.09 Cloudy OVC009 23 22     95%   23 1016.6        
Jul 22 03:55 N 22 11.27 Fog/Mist SCT007 OVC010 23 22     96%   24 1016.59   0    
Jul 22 03:35 N 17 3.22 Light Rain and Fog/Mist OVC009 23 22     96%   24 1016.59   0    
Jul 22 03:15 N 17 3.22 Rain and Fog/Mist BKN009 OVC014 23 22     95%   24 1016.6   0    
Jul 22 02:55 N 13 16.09 Rain OVC014 23 22     93%   24 1016.26        
Jul 22 02:35 NNE 13 16.09 Cloudy OVC014 23 22     94%   24 1016.26        
Jul 22 02:15 N 8 16.09 Cloudy OVC014 23 22     94%   24 1016.3        
Jul 22 01:55 N 11 16.09 Cloudy BKN014 OVC021 23 22     92%   24 1016.26        
Jul 22 01:35 N 13 16.09 Cloudy BKN014 OVC021 23 21     91%   24 1015.92        
Jul 22 01:15 N 11 16.09 Cloudy BKN012 OVC019 23 21     91%   23 1015.9        
Jul 22 00:55 N 9 16.09 Cloudy OVC012 23 22     93%   24 1015.92        
Jul 22 00:35 N 6 16.09   OVC014 23 22     94%   23 1015.58        
Jul 22 00:15 N 8 16.09 Mostly Cloudy BKN016 BKN020 23 22     93%   23 1015.6        
Jul 21 23:55 N 9 16.09 Light Rain SCT070 SCT075 23 22     95%   24 1015.58        
Jul 21 23:35 N 11 16.09 Thunderstorms and Light Rain SCT012 SCT070 SCT120 23 22     94%   24 1016.26        
Jul 21 23:15 Calm 11.27 Light Rain SCT012 BKN021 OVC100 23 22     92%   24 1015.92        
Jul 21 22:55 SSE 9 16.09 Cloudy SCT023 SCT050 OVC060 23 21     90%   24 1014.9        
Jul 21 22:35 NW 9 16.09   BKN047 OVC060 23 22     92%   24 1014.56        
Jul 21 22:15 E 13 16.09 Thunderstorms and Rain SCT024 BKN045 OVC075 23 21     91%   24 1014.2        
Jul 21 21:55 NNE 17 16.09 Thunderstorms and Heavy Rain SCT012 BKN046 OVC075 24 22     91%   25 1012.19   3    
Jul 21 21:35 NNW 22 1.61 Thunderstorms and Heavy Rain and Fog/Mist BKN006 OVC013 24 21     83%   25 1013.2   3    
Jul 21 21:15   1.61 Thunderstorms and Heavy Rain and Fog/Mist BKN008 OVC025 23 21     87%   24 1012.9   1    
Jul 21 20:55 SE 15 16.09 Thunderstorms CLR 30 25     74%   35 1010.16        
Jul 21 20:35 S 13 16.09 Clear CLR 30 25     73%   36 1010.5        
Jul 21 20:15 S 13 16.09 Partly Cloudy SCT060 SCT075 SCT110 31 25     69%   37 1010.8        
Jul 21 19:55 SSE 13 16.09 Mostly Cloudy BKN060 BKN075 32 25     67%   39 1011.18        
Jul 21 19:35 SSE 7 16.09 Partly Cloudy SCT060 32 25     65%   39 1011.85        
Jul 21 19:15 SSE 9 16.09 Partly Cloudy SCT060 33 25     63%   40 1011.9        
Jul 21 18:55 SE 13 16.09 Partly Cloudy SCT060 33 25     63%   40 1011.18        
Jul 21 18:35 SE 13 16.09 Mostly Cloudy BKN050 34 25     62%   41 1011.18        
Jul 21 18:15 SSE 15 16.09 Mostly Cloudy BKN050 33 24     60%   40 1011.5        
Jul 21 17:55 SE 17 16.09 Clear CLR 34 24     56%   41 1011.85        
Jul 21 17:35 SSE 6 16.09 Clear CLR 34 24     55%   40 1012.19        
Jul 21 17:15 SSE 9 16.09 Clear CLR 34 24     58%   40 1012.19        
Jul 21 16:55 SSE 5 16.09 Clear CLR 34 25     60%   41 1012.5        
Jul 21 16:35 S 11 16.09 Clear CLR 33 24     58%   40 1012.53        
Jul 21 16:15 SSE 8 16.09 Clear CLR 33 24     58%   39 1012.5        
Jul 21 15:55 W 6 16.09 Clear CLR 33 24     59%   40 1012.87        
Jul 21 15:35 SW 11 16.09 Clear CLR 33 24     59%   39 1012.87        
Jul 21 15:15 SW 8 16.09 Clear CLR 33 23     58%   38 1013.2        
Jul 21 14:55 SSW 13 16.09 Clear CLR 33 24     58%   39 1013.21        
Jul 21 14:35 WSW 15 16.09 Clear CLR 33 24     57%   39 1013.21        
Jul 21 14:15 S 13 16.09 Clear CLR 33 23     58%   38 1013.6        
Jul 21 13:55 SSW 19 16.09 Clear CLR 32 23     59%   37 1013.21        
Jul 21 13:35 SSW 15 16.09 Partly Cloudy SCT035 32 24     61%   38 1013.55        
Jul 21 13:15 S 15 16.09 Clear CLR 31 24     64%   37 1013.2        
Jul 21 12:55 SSE 17 16.09 Clear CLR 31 24     64%   36 1013.21        
Jul 21 12:35 S 11 16.09 Clear CLR 31 24     64%   36 1013.21        
Jul 21 12:15 SW 15 16.09 Clear CLR 31 23     62%   35 1013.2        
Jul 21 11:55 SSW 15 16.09 Clear CLR 31 24     65%   36 1013.6        
Jul 21 11:35 SSE 19 16.09 Clear CLR 31 24     66%   35 1013.55        
Jul 21 11:15 SSW 18 16.09 Clear CLR 31 23     65%   35 1013.9        
Jul 21 10:55 S 22 16.09 Clear CLR 30 23     67%   35 1013.55        
Jul 21 10:35 S 19 16.09 Clear CLR 30 23     68%   33 1013.55        
Jul 21 10:15 S 21 16.09 Clear CLR 29 24     72%   33 1013.6        
Jul 21 09:55 S 15 16.09 Clear CLR 29 24     74%   33 1013.55        
Jul 21 09:35 SSE 17 16.09 Clear CLR 28 24     75%   32 1013.55        
Jul 21 09:15 SE 17 16.09 Clear CLR 28 24     78%   32 1013.88        
Jul 21 08:55 ESE 15 16.09 Clear CLR 27 23     80%   30 1014.22        
Jul 21 08:35 ESE 15 16.09 Clear CLR 27 23     81%   29 1014.22        
Jul 21 08:15 SE 15 16.09 Clear CLR 27 23     80%   29 1014.6        
Jul 21 07:55 SE 15 16.09 Clear CLR 27 23     81%   29 1014.22        
Jul 21 07:35 SE 15 16.09 Clear CLR 26 23     85%   28 1014.56        
Jul 21 07:15 SE 13 16.09 Clear CLR 25 23     88%   26 1014.56        
Jul 21 06:55 ESE 13 16.09 Clear CLR 24 23     91%   25 1014.56        
Jul 21 06:35 E 13 16.09 Clear CLR 23 22     94%   24 1014.56        
Jul 21 06:15 SSE 9 16.09 Clear CLR 23 22     92%   24 1013.9        
Jul 21 05:55 S 6 16.09 Clear CLR 24 22     91%   25 1013.88        
Jul 21 05:35 SSW 9 16.09 Clear CLR 25 22     88%   25 1013.88        
Jul 21 05:15 S 15 16.09 Clear CLR 25 23     87%   26 1013.21        
Jul 21 04:55 S 18 16.09 Clear CLR 25 23     87%   26 1012.9        
Jul 21 04:35 S 22 16.09 Clear CLR 25 23     88%   26 1012.53        
Jul 21 04:15 S 18 16.09 Clear CLR 25 23     89%   26 1012.9        
Jul 21 03:55 S 17 16.09 Clear CLR 25 23     89%   26 1012.87        
Jul 21 03:35 S 19 16.09 Clear CLR 25 23     87%   26 1012.87        
Jul 21 03:15 SSE 13 16.09 Clear CLR 25 23     87%   26 1013.2        
Jul 21 02:55 SSE 13 16.09 Clear CLR 25 23     86%   26 1012.87        
Jul 21 02:35 SSE 15 16.09 Clear CLR 25 23     86%   26 1012.87        
Jul 21 02:15 SSE 15 16.09 Clear CLR 26 23     85%   26 1012.9        
Jul 21 01:55 S 15 16.09 Clear CLR 26 23     85%   27 1012.87        
Jul 21 01:35 SSE 15 16.09 Clear CLR 26 23     84%   28 1013.21        
Jul 21 01:15 SSE 11 16.09 Clear CLR 26 23     83%   28 1012.9        
Jul 21 00:55 S 15 16.09 Clear CLR 26 23     82%   29 1012.87        
Jul 21 00:35 S 13 16.09 Clear CLR 27 23     82%   29 1012.87        
Jul 21 00:15 S 13 16.09 Clear CLR 27 23     82%   29 1012.9        
Jul 20 23:55 S 11 16.09 Clear CLR 27 23     81%   30 1012.53        
Jul 20 23:35 S 13 16.09 Clear CLR 27 23     79%   30 1012.19        
Jul 20 23:15 S 17 16.09 Clear CLR 28 23     77%   31 1011.85        
Jul 20 22:55 S 19 16.09 Clear CLR 28 23     75%   32 1011.18        
Jul 20 22:35 S 19 16.09 Clear CLR 29 24     74%   32 1011.18        
Jul 20 22:15 S 21 16.09 Clear CLR 29 24     75%   32 1010.8        
Jul 20 21:55 S 15 16.09 Clear CLR 29 24     74%   33 1010.84        
Jul 20 21:35 S 17 16.09 Clear CLR 29 24     71%   34 1010.5        
Jul 20 21:15 S 18 16.09 Clear CLR 30 24     70%   34 1010.2        
Jul 20 20:55 S 19 16.09 Clear CLR 30 24     70%   34 1010.5        
Jul 20 20:35 SSE 17 16.09 Clear CLR 30 24     68%   35 1010.5        
Jul 20 20:15 SSE 15 16.09 Clear CLR 31 24     65%   37 1010.5        
Jul 20 19:55 SSE 15 16.09 Clear CLR 32 24     64%   39 1010.5        
Jul 20 19:35 S 19 16.09 Clear CLR 33 24     58%   39 1009.82        
Jul 20 19:15 S 22 16.09 Clear CLR 34 23     53%   39 1009.8        
Jul 20 18:55 S 20 16.09 Clear CLR 34 23     53%   40 1009.82        
Jul 20 18:35 S 19 16.09 Clear CLR 35 23     53%   40 1009.82        
Jul 20 18:15 S 30 16.09 Clear CLR 35 23     51%   40 1009.8        
Jul 20 17:55 S 28 16.09 Clear CLR 35 24     54%   42 1009.48        
Jul 20 17:35 S 24 16.09 Clear CLR 35 24     53%   43 1009.82        
Jul 20 17:15 S 26 16.09 Clear CLR 35 24     53%   42 1010.2        
Jul 20 16:55 S 28 16.09 Clear CLR 35 24     53%   41 1010.16        
Jul 20 16:35 S 35 16.09 Clear and Windy CLR 35 24     53%   43 1010.16        
Jul 20 16:15 S 30 16.09 Clear CLR 36 24     52%   43 1010.2        
Jul 20 15:55 S 30 16.09 Clear CLR 35 24     53%   43 1010.5        
Jul 20 15:35 S 26 16.09 Clear CLR 35 25     55%   44 1010.5        
Jul 20 15:15 S 32 16.09 Clear and Windy CLR 35 24     53%   42 1010.8        
Jul 20 14:55 S 30 16.09 Clear CLR 35 25     55%   43 1010.84        
Jul 20 14:35 S 35 16.09 Clear and Windy CLR 35 25     55%   43 1010.84        
Jul 20 14:15 S 26 16.09 Clear CLR 34 24     56%   42 1010.8        
Jul 20 13:55 S 30 16.09 Clear CLR 35 24     55%   42 1011.18        
Jul 20 13:35 SSW 28 16.09 Clear CLR 34 24     57%   41 1011.51        
Jul 20 13:15 S 30 16.09 Clear CLR 34 25     58%   41 1011.9        
Jul 20 12:55 S 28 16.09 Clear   34 25     59%   41 1011.85        
Jul 20 12:35 S 30 16.09 Clear   33 24     60%   40 1011.85        
Jul 20 12:15 S 31 16.09 Clear and Windy   33 24     62%   39 1011.85        
Jul 20 11:55 S 30 16.09 Clear   33 24     62%   39 1012.2        
Jul 20 11:35 SSW 32 16.09 Clear and Windy CLR 32 24     63%   38 1011.9        
Jul 20 11:15 S 28 16.09 Clear CLR 31 24     64%   36 1011.9        
Jul 20 10:55 S 33 16.09 Clear and Windy CLR 31 24     65%   36 1011.9        
Jul 20 10:35 S 37 16.09 Clear and Windy CLR 31 24     66%   36 1011.85        
Jul 20 10:15 S 31 16.09 Clear and Windy CLR 30 24     71%   35 1011.85        
Jul 20 09:55 S 32 16.09 Clear and Windy CLR 29 24     71%   34 1012.2        
Jul 20 09:35 S 33 16.09 Clear and Windy CLR 29 23     73%   33 1012.19        
Jul 20 09:15 S 30 16.09 Clear CLR 28 23     73%   32 1012.5        
Jul 20 08:55 S 33 16.09 Clear and Windy CLR 28 23     75%   31 1012.5        
Jul 20 08:35 S 28 16.09 Clear CLR 27 23     77%   30 1012.53        
Jul 20 08:15 S 32 16.09 Clear and Windy CLR 27 23     79%   29 1012.5        
Jul 20 07:55 S 28 16.09 Clear CLR 26 23     80%   28 1012.53        
Jul 20 07:35 S 28 16.09 Clear CLR 26 23     82%   28 1012.53        
Jul 20 07:15 S 21 16.09 Clear CLR 25 22     85%   26 1012.2        
Jul 20 06:55 SSE 20 16.09 Clear CLR 25 22     87%   25 1012.53        
Jul 20 06:35 SSE 17 16.09 Clear CLR 25 22     87%   25 1012.53        
Jul 20 06:15 SSE 19 16.09 Clear CLR 24 22     88%   25 1012.53        
Jul 20 05:55 S 15 16.09 Clear CLR 25 22     87%   25 1012.19        
Jul 20 05:35 S 15 16.09 Clear CLR 24 22     88%   25 1012.19        
Jul 20 05:15 S 17 16.09 Clear CLR 25 22     87%   25 1012.2        
Jul 20 04:55 SSE 17 16.09 Clear CLR 25 22     85%   25 1012.19        
Jul 20 04:35 S 17 16.09 Clear CLR 25 22     85%   26 1012.2        
Jul 20 04:15 S 17 16.09 Clear CLR 25 22     84%   26 1012.2        
Jul 20 03:55 S 17 16.09 Clear CLR 25 22     84%   26 1012.2        
Jul 20 03:35 S 15 16.09 Clear CLR 25 22     83%   26 1011.85        
Jul 20 03:15 S 17 16.09 Clear CLR 25 22     82%   26 1011.85        
Jul 20 02:55 S 13 16.09 Clear CLR 26 22     81%   26 1011.85        
Jul 20 02:35 S 17 16.09 Clear CLR 26 22     79%   28 1011.85        
Jul 20 02:15 S 18 16.09 Clear CLR 26 22     77%   28 1011.9        
Jul 20 01:55 S 24 16.09 Clear CLR 27 22     76%   29 1011.51        
Jul 20 01:35 S 24 16.09 Clear CLR 27 22     75%   29 1011.85        
Jul 20 01:15 S 22 16.09 Clear CLR 27 22     75%   29 1011.85        
Jul 20 00:55 S 24 16.09 Clear CLR 27 22     74%   30 1011.85        
Jul 20 00:35 S 20 16.09 Clear CLR 28 22     74%   30 1011.85        
Jul 20 00:15 S 26 16.09 Clear CLR 28 23     73%   31 1011.9        
Jul 19 23:55 S 26 16.09 Clear CLR 28 23     73%   31 1011.85        
Jul 19 23:35 S 24 16.09 Clear CLR 28 23     72%   31 1011.85        
Jul 19 23:15 S 26 16.09 Clear CLR 28 23     71%   32 1011.9        
Jul 19 22:55 S 28 16.09 Clear CLR 29 23     70%   32 1011.85        
Jul 19 22:35 S 24 16.09 Clear CLR 29 23     71%   33 1011.85        
Jul 19 22:15 S 21 16.09 Clear CLR 29 23     71%   33 1011.9        
Jul 19 21:55 S 20 16.09 Clear CLR 29 23     71%   33 1011.51        
Jul 19 21:35 S 19 16.09 Clear CLR 29 23     70%   34 1011.18        
Jul 19 21:15 S 22 16.09 Clear CLR 30 24     69%   34 1010.8        
Jul 19 20:55 SSE 20 16.09 Clear CLR 30 24     69%   35 1010.84        
Jul 19 20:35 S 24 16.09 Clear CLR 31 24     68%   36 1010.5        
Jul 19 20:15 S 21 16.09 Clear CLR 31 24     67%   37 1010.5        
Jul 19 19:55 S 26 16.09 Clear CLR 32 24     64%   38 1010.16        
Jul 19 19:35 S 24 16.09 Clear CLR 33 25     63%   39 1010.16        
Jul 19 19:15 S 22 16.09 Clear CLR 33 25     60%   41 1010.16        
Jul 19 18:55 S 22 16.09 Clear CLR 34 24     54%   40 1010.16        
Jul 19 18:35 S 30 16.09 Clear CLR 35 23     52%   40 1010.16        
Jul 19 18:15 S 30 16.09 Clear CLR 35 24     52%   41 1010.16        
Jul 19 17:55 S 30 16.09 Clear CLR 35 24     54%   42 1010.5        
Jul 19 17:35 S 30 16.09 Clear CLR 35 23     51%   41 1010.16        
Jul 19 17:15 S 30 16.09 Clear CLR 35 24     51%   42 1010.5        
Jul 19 16:55 S 33 16.09 Clear and Windy CLR 35 24     53%   43 1010.5        
Jul 19 16:35 S 30 16.09 Clear CLR 35 25     54%   43 1010.84        
Jul 19 16:15 S 30 16.09 Clear CLR 35 25     55%   43 1010.8        
Jul 19 15:55 SSE 30 16.09 Clear CLR 35 25     55%   44 1010.84        
Jul 19 15:35 S 30 16.09 Clear CLR 35 25     54%   43 1011.18        
Jul 19 15:15 S 32 16.09 Clear and Windy CLR 35 25     55%   44 1011.2        
Jul 19 14:55 S 30 16.09 Clear CLR 35 25     56%   42 1011.18        
Jul 19 14:35 S 33 16.09 Clear and Windy CLR 35 25     57%   43 1011.51        
Jul 19 14:15 S 24 16.09 Clear CLR 35 25     58%   44 1011.9        
Jul 19 13:55 S 24 16.09 Clear CLR 34 25     57%   41 1011.85        
Jul 19 13:35 SSW 26 16.09 Clear CLR 34 24     57%   41 1012.19        
Jul 19 13:15 S 30 16.09 Clear CLR 34 25     59%   41 1012.19        
Jul 19 12:55 S 28 16.09 Clear CLR 34 24     59%   40 1012.53        
Jul 19 12:35 SSW 31 16.09 Clear and Windy CLR 33 24     59%   39 1012.53        
Jul 19 12:15 SSW 32 16.09 Clear and Windy CLR 33 24     60%   39 1012.5        
Jul 19 11:55 SSW 33 16.09 Clear and Windy CLR 32 24     61%   38 1012.53        
Jul 19 11:35 SSW 30 16.09 Clear CLR 32 24     62%   38 1012.53        
Jul 19 11:15 S 32 16.09 Clear and Windy CLR 32 24     63%   37 1012.5        
Jul 19 10:55 S 28 16.09 Clear CLR 31 24     64%   36 1012.53        
Jul 19 10:35 SSW 31 16.09 Clear and Windy CLR 31 24     66%   35 1012.53        
Jul 19 10:15 S 31 16.09 Clear and Windy CLR 30 24     69%   34 1012.53        
Jul 19 09:55 S 24 16.09 Clear CLR 29 24     71%   34 1012.53        
Jul 19 09:35 S 28 16.09 Clear CLR 29 23     73%   32 1012.53        
Jul 19 09:15 S 26 16.09 Clear CLR 28 23     75%   31 1012.5        
Jul 19 08:55 S 26 16.09 Clear CLR 27 23     76%   30 1012.53        
Jul 19 08:35 S 28 16.09 Clear CLR 27 23     77%   29 1012.53        
Jul 19 08:15 S 28 16.09 Clear CLR 27 23     79%   29 1012.53        
Jul 19 07:55 S 30 16.09 Clear CLR 26 22     80%   28 1012.53        
Jul 19 07:35 S 22 16.09 Clear CLR 26 22     82%   26 1012.53        
Jul 19 07:15 S 18 16.09 Clear CLR 25 22     84%   26 1012.2        
Jul 19 06:55 S 15 16.09 Clear CLR 25 22     86%   25 1012.19        
Jul 19 06:35 S 17 16.09 Clear CLR 24 22     87%   25 1011.85        
Jul 19 06:15 S 18 16.09 Clear CLR 24 22     88%   25 1011.9        
Jul 19 05:55 S 17 16.09 Clear CLR 24 22     88%   25 1011.85        
Jul 19 05:35 S 15 16.09 Clear CLR 24 22     87%   25 1011.85        
Jul 19 05:15 S 15 16.09 Clear CLR 24 22     88%   25 1011.9        
Jul 19 04:55 S 17 16.09 Clear CLR 24 22     88%   25 1011.51        
Jul 19 04:35 S 17 16.09 Clear CLR 25 22     85%   25 1011.51        
Jul 19 04:15 S 17 16.09 Clear CLR 25 22     85%   26 1011.51        
Jul 19 03:55 S 18 16.09 Clear CLR 25 22     84%   26 1011.9        
Jul 19 03:35 S 19 16.09 Clear CLR 26 22     82%   26 1011.85        
Jul 19 03:15 S 20 16.09 Clear CLR 26 22     82%   26 1011.85        
Jul 19 02:55 S 22 16.09 Clear CLR 26 22     81%   28 1011.85        
Jul 19 02:35 Calm 16.09 Clear CLR 26 23     79%   28 1011.85        
Jul 19 02:15 S 24 16.09 Clear CLR 27 23     79%   29 1012.2        
Jul 19 01:55 S 24 16.09 Clear CLR 27 23     77%   29 1012.19        
Jul 19 01:35 S 28 16.09 Clear CLR 27 23     77%   29 1012.19        
Jul 19 01:15 S 24 16.09 Clear CLR 27 23     76%   30 1012.2        
Jul 19 00:55 S 28 16.09 Clear CLR 27 23     76%   30 1012.19        
Jul 19 00:35 S 26 16.09 Clear CLR 27 23     76%   30 1012.2        
Jul 19 00:15 S 22 16.09 Clear CLR 28 23     75%   30 1012.2        
Jul 18 23:55 S 26 16.09 Clear CLR 28 23     73%   31 1012.2        
Jul 18 23:35 S 22 16.09 Clear CLR 28 23     73%   31 1011.9        
Jul 18 23:15 S 24 16.09 Clear CLR 28 22     71%   31 1011.9        
Jul 18 22:55 S 22 16.09 Clear CLR 28 22     69%   31 1011.9        
Jul 18 22:35 S 22 16.09 Clear CLR 29 22     69%   31 1011.5        
Jul 18 22:15 S 26 16.09 Clear CLR 29 22     70%   32 1011.2        
Jul 18 21:55 S 21 16.09 Clear CLR 28 23     70%   32 1011.2        
Jul 18 21:35 S 17 16.09 Clear CLR 29 22     68%   32 1010.8        
Jul 18 21:15 S 21 16.09 Clear CLR 29 22     67%   33 1010.5        
Jul 18 20:55 S 20 16.09 Clear CLR 30 23     67%   33 1010.5        
Jul 18 20:35 S 22 16.09 Clear CLR 30 23     64%   35 1010.16        
Jul 18 20:20 S 22 16.09 Clear CLR 31 23     63%   35 1010.16        
Jul 18 19:55 S 22 16.09 Clear CLR 32 24     63%   37 1009.8        
Jul 18 19:15 S 30 16.09 Clear CLR 33 24     60%   38 1009.48        
Jul 18 18:55 S 32 16.09 Clear and Windy CLR 33 23     56%   39 1009.5        
Jul 18 18:35 S 31 16.09 Clear and Windy CLR 34 23     55%   39 1009.14        
Jul 18 18:15 S 33 16.09 Clear and Windy CLR 34 24     55%   40 1009.2        
Jul 18 17:55 S 30 16.09 Clear CLR 34 24     55%   41 1009.48        
Jul 18 17:35 S 35 16.09 Clear and Windy CLR 34 24     54%   41 1009.82        
Jul 18 17:15 S 32 16.09 Clear and Windy CLR 35 24     54%   41 1009.8        
Jul 18 16:55 S 32 16.09 Partly Cloudy and Windy SCT049 35 24     53%   42 1009.8        
Jul 18 16:35 S 35 16.09 Clear and Windy CLR 35 24     53%   42 1010.16        
Jul 18 16:15 S 33 16.09 Clear and Windy CLR 35 24     54%   42 1010.2        
Jul 18 15:55 SSW 33 11.27 Clear and Windy CLR 35 24     54%   42 1010.16        
Jul 18 15:35 S 33 16.09 Clear and Windy CLR 35 25     55%   42 1010.5        
Jul 18 15:15 SSW 39 16.09 Partly Cloudy and Windy SCT046 35 24     53%   42 1010.5        
Jul 18 14:55 SSW 30 16.09 Partly Cloudy SCT045 35 24     55%   42 1010.84        
Jul 18 14:35 S 28 16.09 Partly Cloudy SCT045 35 25     57%   42 1010.84        
Jul 18 14:15 S 26 16.09 Clear CLR 34 25     56%   42 1010.8        
Jul 18 13:50 S 33 16.09 Clear and Windy CLR 34 24     57%   41 1011.18        
Jul 18 13:35 S 30 16.09 Clear CLR 34 25     58%   41 1011.2        
Jul 18 13:30 S 28 16.09 Clear CLR 34 24     58%   41 1011.5        
Jul 18 13:15 SSW 28 11.27 Clear CLR 34 24     57%   41 1011.5        
Jul 18 12:55 SSW 26 16.09 Clear CLR 34 24     58%   40 1011.85        
Jul 18 12:35 S 31 16.09 Clear and Windy CLR 33 24     59%   40 1011.85        
Jul 18 12:15 S 32 16.09 Clear and Windy CLR 33 24     60%   39 1011.9        
Jul 18 11:55 SSW 30 16.09 Clear CLR 32 24     61%   38 1012.19        
Jul 18 11:35 SSW 30 16.09 Clear CLR 32 24     61%   38 1012.19        
Jul 18 11:15 SSW 37 16.09 Clear and Windy CLR 32 24     62%   38 1012.2        
Jul 18 10:55 SSW 33 16.09 Clear and Windy CLR 32 24     63%   37 1012.19        
Jul 18 10:35 SSW 35 16.09 Clear and Windy CLR 31 24     64%   36 1012.19        
Jul 18 10:15 SSW 30 16.09 Clear CLR 31 24     68%   36 1012.5        
Jul 18 09:55 SW 30 16.09 Clear CLR 30 24     70%   35 1012.87        
Jul 18 09:35 SSW 30 16.09 Clear CLR 29 24     72%   34 1012.87        
Jul 18 09:15 SSW 30 16.09 Clear CLR 29 24     74%   33 1013.21        
Jul 18 08:55 SSW 30 16.09 Clear CLR 28 24     76%   32 1013.2        
Jul 18 08:35 SSW 30 16.09 Clear CLR 28 24     78%   31 1013.21        
Jul 18 08:15 SSW 24 16.09 Clear CLR 27 23     79%   30 1013.6        
Jul 18 07:55 S 24 16.09 Clear CLR 26 23     82%   29 1013.21        
Jul 18 07:35 S 22 16.09 Clear CLR 26 23     84%   28 1013.21        
Jul 18 07:15 S 21 16.09 Clear CLR 26 23     85%   26 1013.2        
Jul 18 06:55 S 17 16.09 Clear CLR 25 23     86%   26 1013.55        
Jul 18 06:35 S 17 16.09 Clear CLR 25 22     87%   26 1013.55        
Jul 18 06:15 S 17 16.09 Clear CLR 25 22     87%   25 1013.21        
Jul 18 05:55 S 18 16.09 Clear CLR 25 22     88%   25 1013.2        
Jul 18 05:35 S 15 16.09 Clear CLR 25 22     87%   25 1013.21        
Jul 18 05:15 S 17 16.09 Clear CLR 25 22     86%   26 1013.21        
Jul 18 04:55 S 21 16.09 Clear CLR 25 22     84%   26 1013.2        
Jul 18 04:35 S 18 16.09 Clear CLR 26 22     82%   26 1013.2        
Jul 18 04:15 S 17 16.09 Clear CLR 26 22     82%   26 1012.87        
Jul 18 03:55 S 24 16.09 Clear CLR 26 22     82%   27 1012.9        
Jul 18 03:35 S 19 16.09 Clear CLR 26 23     81%   28 1012.87        
Jul 18 03:15 S 21 16.09 Clear CLR 26 23     80%   28 1012.9        
Jul 18 02:55 S 19 16.09 Clear CLR 26 23     83%   28 1012.87        
Jul 18 02:35 S 17 16.09 Clear CLR 26 23     83%   28 1013.21        
Jul 18 02:15 S 18 16.09 Clear CLR 26 23     83%   28 1013.6        
Jul 18 01:55 S 18 16.09 Clear CLR 26 23     81%   28 1013.6        
Jul 18 01:35 S 19 16.09 Clear CLR 27 23     80%   29 1013.55        
Jul 18 01:15 S 21 16.09 Clear CLR 27 23     77%   30 1013.6        
Jul 18 00:55 S 19 16.09 Clear CLR 27 23     76%   30 1013.55        
Jul 18 00:35 S 19 16.09 Clear CLR 27 23     76%   29 1013.55        
Jul 18 00:15 S 22 16.09 Clear CLR 28 22     74%   30 1013.21        
Jul 17 23:55 S 26 16.09 Clear CLR 28 22     71%   31 1013.2        
Jul 17 23:35 S 26 16.09 Clear CLR 28 22     70%   31 1012.87        
Jul 17 23:15 S 24 16.09 Clear CLR 28 23     71%   31 1012.53        
Jul 17 22:55 S 24 16.09 Clear CLR 29 23     70%   32 1012.5        
Jul 17 22:35 S 24 16.09 Clear CLR 28 23     72%   32 1012.53        
Jul 17 22:15 S 24 16.09 Clear CLR 29 23     70%   33 1012.5        
Jul 17 21:55 S 19 16.09 Clear CLR 29 23     71%   33 1012.19        
Jul 17 21:35 S 19 16.09 Clear CLR 29 23     71%   33 1012.19        
Jul 17 21:15 S 21 16.09 Clear CLR 29 24     71%   34 1011.5        
Jul 17 20:55 S 22 16.09 Clear CLR 30 24     71%   35 1011.51        
Jul 17 20:35 S 19 16.09 Clear CLR 30 24     71%   35 1011.51        
Jul 17 20:15 SSE 18 16.09 Clear CLR 31 24     65%   37 1011.2        
Jul 17 19:55 S 20 16.09 Clear CLR 32 24     62%   38 1011.18        
Jul 17 19:35 S 26 16.09 Clear CLR 33 24     60%   38 1011.18        
Jul 17 19:15 S 21 16.09 Clear CLR 33 24     59%   40 1011.2        
Jul 17 18:55 S 24 16.09 Clear CLR 34 24     57%   40 1011.51        
Jul 17 18:35 S 26 16.09 Clear CLR 34 24     56%   41 1011.51        
Jul 17 18:15 S 26 16.09 Clear CLR 34 24     56%   41 1011.5        
Jul 17 17:55 S 28 16.09 Clear CLR 34 23     52%   40 1011.85        
Jul 17 17:35 S 22 16.09 Clear CLR 35 24     53%   41 1011.85        
Jul 17 17:15 SSW 30 16.09 Clear CLR 35 23     51%   41 1012.2        
Jul 17 16:55 SSW 30 16.09 Clear CLR 35 24     53%   41 1012.19        
Jul 17 16:35 S 26 16.09 Clear CLR 35 23     51%   41 1012.53        
Jul 17 16:15 S 35 16.09 Clear and Windy CLR 35 24     54%   42 1012.5        
Jul 17 15:55 S 30 16.09 Clear CLR 35 25     54%   43 1012.53        
Jul 17 15:35 S 31 16.09 Clear and Windy CLR 35 25     55%   43 1012.87        
Jul 17 15:15 S 30 16.09 Clear CLR 35 25     55%   42 1013.2        
Jul 17 14:55 S 26 16.09 Clear CLR 35 24     54%   41 1013.2        
Jul 17 14:35 S 28 16.09 Clear CLR 35 25     57%   42 1013.55        
Jul 17 14:15 S 37 16.09 Clear and Windy CLR 34 24     56%   42 1013.6        
Jul 17 13:55 S 28 16.09 Clear CLR 34 25     60%   42 1013.55        
Jul 17 13:35 S 28 16.09 Clear CLR 35 24     55%   42 1013.88        
Jul 17 13:15 S 30 16.09 Clear CLR 34 25     58%   41 1013.9        
Jul 17 12:55 S 31 16.09 Clear and Windy CLR 34 24     59%   40 1014.22        
Jul 17 12:35 S 30 16.09 Clear CLR 34 25     62%   41 1014.22        
Jul 17 12:15 S 24 16.09 Clear CLR 33 25     61%   41 1014.2        
Jul 17 11:55 S 31 16.09 Clear and Windy CLR 33 24     61%   40 1014.22        
Jul 17 11:35 S 24 16.09 Clear CLR 33 24     61%   39 1014.22        
Jul 17 11:15 S 26 16.09 Clear CLR 32 24     62%   38 1014.2        
Jul 17 10:55 S 28 16.09 Clear CLR 32 24     62%   37 1014.56        
Jul 17 10:35 SSW 26 16.09 Clear CLR 32 24     65%   37 1014.2        
Jul 17 10:15 SSW 22 16.09 Clear CLR 31 24     67%   37 1014.22        
Jul 17 09:55 SSW 26 16.09 Clear CLR 31 24     68%   36 1014.2        
Jul 17 09:35 SSW 30 16.09 Clear CLR 30 24     69%   35 1014.22        
Jul 17 09:15 S 30 16.09 Clear CLR 30 24     72%   34 1013.88        
Jul 17 08:55 S 26 16.09 Clear CLR 29 24     74%   33 1013.9        
Jul 17 08:35 S 22 16.09 Clear CLR 28 24     77%   33 1013.88        
Jul 17 08:15 S 22 16.09 Clear CLR 28 24     79%   32 1013.9        
Jul 17 07:55 S 17 16.09 Clear CLR 27 24     83%   31 1013.88        
Jul 17 07:35 S 19 16.09 Clear CLR 27 24     85%   30 1013.55        
Jul 17 07:15 S 19 16.09 Clear CLR 27 24     87%   29 1013.21        
Jul 17 06:55 S 15 16.09 Clear CLR 26 24     90%   28 1013.21        
Jul 17 06:35 S 15 16.09 Clear CLR 26 24     90%   28 1013.21        
Jul 17 06:15 S 17 16.09 Clear CLR 26 24     90%   28 1013.2        
Jul 17 05:55 S 15 16.09 Clear CLR 26 24     90%   28 1012.87        
Jul 17 05:35 S 17 16.09 Clear CLR 26 24     90%   28 1012.87        
Jul 17 05:15 S 15 16.09 Clear CLR 26 24     91%   28 1012.9        
Jul 17 04:55 S 13 16.09 Clear CLR 26 24     92%   28 1012.87        
Jul 17 04:35 S 13 16.09 Clear CLR 26 24     93%   27 1012.53        
Jul 17 04:15 S 13 16.09 Clear CLR 26 24     93%   27 1012.53        
Jul 17 03:55 S 11 16.09 Clear CLR 25 24     93%   26 1012.5        
Jul 17 03:35 S 11 16.09 Clear CLR 26 24     91%   27 1012.5        
Jul 17 03:15 SSE 13 16.09 Clear CLR 26 24     90%   28 1012.5        
Jul 17 02:55 S 15 16.09 Clear CLR 26 24     90%   28 1012.5        
Jul 17 02:35 SSE 13 16.09 Clear CLR 26 24     89%   28 1012.9        
Jul 17 02:15 SSE 11 16.09 Clear CLR 26 24     87%   28 1012.9        
Jul 17 01:55 SSE 11 16.09 Clear   26 24     86%   28 1013.21        
Jul 17 01:35 SSE 9 16.09 Clear   26 24     85%   29 1013.2        
Jul 17 01:15 SSE 15 16.09 Clear   27 24     83%   29 1013.6        
Jul 17 00:55 SSE 13 16.09 Clear   27 24     83%   29 1013.6        
Jul 17 00:35 SE 13 16.09 Clear CLR 27 23     82%   29 1013.55        
Jul 17 00:15 SE 11 16.09 Clear CLR 27 24     83%   29 1013.6        
Jul 16 23:55 SE 11 16.09 Clear CLR 26 23     84%   29 1013.55        
Jul 16 23:35 SE 11 16.09 Clear CLR 27 24     83%   29 1013.55        
Jul 16 23:15 SE 11 16.09 Clear CLR 27 24     84%   29 1013.2        
Jul 16 22:55 ESE 11 16.09 Clear CLR 27 24     84%   29 1013.21        
Jul 16 22:35 ESE 9 16.09 Clear CLR 27 24     82%   30 1013.21        
Jul 16 22:15 SE 11 16.09 Clear CLR 27 24     81%   30 1013.2        
Jul 16 21:55 ESE 11 16.09 Clear CLR 27 24     80%   31 1012.87        
Jul 16 21:35 ESE 13 16.09 Clear CLR 28 24     78%   31 1012.87        
Jul 16 21:15 ESE 11 16.09 Clear CLR 28 24     78%   31 1012.53        
Jul 16 20:55 ESE 11 16.09 Clear CLR 28 24     78%   32 1012.19        
Jul 16 20:35 ESE 9 16.09 Clear CLR 29 24     76%   33 1012.19        
Jul 16 20:15 SE 9 16.09 Clear CLR 29 24     74%   34 1012.2        
Jul 16 17:55 SW 13 16.09 Clear CLR 32 24     60%   38 1012.87        
Jul 16 17:35 SW 19 8.05 Haze CLR 33 23     58%   38 1013.21        
Jul 16 17:15 WSW 17 16.09 Clear CLR 33 23     57%   38 1013.6        
Jul 16 17:00 SSW 19 16.09 Clear CLR 33 23     56%   37 1013.21        
Jul 16 16:35 SSW 17 16.09 Clear CLR 32 22     55%   36 1013.21        
Jul 16 16:15 S 11 16.09 Clear CLR 32 22     56%   36 1013.55        
Jul 16 15:55 SSE 15 16.09 Clear CLR 32 22     56%   35 1013.2        
Jul 16 15:35 SE 15 16.09 Clear CLR 32 22     56%   35 1013.2        
Jul 16 15:15 S 13 16.09 Clear CLR 31 22     57%   35 1013.21        
Jul 16 14:55 ESE 11 16.09 Clear CLR 31 21     55%   34 1013.2        
Jul 16 14:35 SSE 9 16.09 Clear CLR 31 21     57%   34 1013.55        
Jul 16 14:15 S 11 16.09 Clear CLR 30 22     60%   34 1013.88        
Jul 16 13:55 S 7 16.09 Clear CLR 30 22     60%   33 1013.88        
Jul 16 13:35 SE 9 16.09 Clear CLR 30 22     62%   33 1014.2        
Jul 16 13:15 SE 8 16.09 Clear CLR 29 22     66%   32 1014.2        
Jul 16 12:55 SSE 8 16.09 Clear CLR 29 22     64%   32 1014.6        
Jul 16 12:35 E 6 16.09 Clear CLR 29 21     62%   32 1014.9        
Jul 16 12:15 ENE 11 16.09 Clear CLR 29 22     66%   33 1014.9        
Jul 16 11:55 NE 11 16.09 Clear CLR 29 22     66%   32 1014.9        
Jul 16 11:35 ENE 9 16.09 Clear CLR 29 22     67%   32 1015.24        
Jul 16 11:15 NE 5 16.09 Clear CLR 28 22     70%   31 1015.2        
Jul 16 10:55 Calm 16.09 Clear CLR 28 22     70%   30 1015.24        
Jul 16 10:35 Calm 16.09 Clear CLR 27 22     72%   29 1014.9        
Jul 16 10:15 Calm 16.09 Clear CLR 27 22     75%   29 1014.9        
Jul 16 09:55 E 6 16.09 Clear CLR 26 22     78%   28 1014.9        
Jul 16 09:35 Calm 16.09 Clear CLR 25 22     81%   26 1015.24        
Jul 16 09:15 Calm 16.09 Clear CLR 25 22     85%   26 1015.2        
Jul 16 08:55 Calm 16.09 Clear CLR 24 22     87%   25 1014.9        
Jul 16 08:35 NE 6 16.09 Clear CLR 23 22     91%   24 1014.56        
Jul 16 08:15 NE 8 16.09 Clear CLR 23 22     91%   24 1014.2        
Jul 16 07:55 Calm 16.09 Clear CLR 23 21     90%   24 1013.88        
Jul 16 07:35 Calm 16.09 Clear CLR 22 21     93%   23 1013.88        
Jul 16 07:15 Calm 16.09 Clear CLR 21 21     97%   22 1013.55        
Jul 16 06:55 Calm 16.09 Clear CLR 21 20     98%     1013.88        
Jul 16 06:35 Calm 16.09 Clear CLR 20 20     97%     1013.55        
Jul 16 06:15 Calm 16.09 Clear CLR 21 20     98%     1012.9        
Jul 16 05:55 Calm 16.09 Clear CLR 20 20     98%     1012.87        
Jul 16 05:35 Calm 16.09 Clear CLR 20 20     98%     1012.87        
Jul 16 05:15 W 5 16.09 Clear CLR 20 20     98%     1012.5        
Jul 16 04:55 Calm 16.09 Clear CLR 20 20     97%     1012.53        
Jul 16 04:35 Calm 16.09 Clear CLR 21 20     97%     1012.53        
Jul 16 04:15 Calm 16.09 Clear CLR 21 21     98%     1012.5        
Jul 16 03:55 Calm 16.09 Clear CLR 21 20     98%     1012.53        
Jul 16 03:35 Calm 16.09 Clear CLR 21 20     97%     1012.87        
Jul 16 03:15 Calm 16.09 Clear CLR 21 20     97%     1012.9        
Jul 16 02:55 Calm 16.09 Clear CLR 21 20     95%   22 1012.87        
Jul 16 02:35 Calm 16.09 Clear CLR 22 21     93%   23 1013.21        
Jul 16 02:15 Calm 16.09 Clear CLR 22 21     94%   23 1013.2        
Jul 16 01:55 Calm 16.09 Clear CLR 22 21     91%   23 1013.21        
Jul 16 01:35 Calm 16.09 Clear CLR 22 21     92%   23 1013.21        
Jul 16 01:15 Calm 16.09 Clear CLR 22 21     92%   23 1013.2        
Jul 16 00:55 Calm 16.09 Clear   22 21     93%   23 1013.21        
Jul 16 00:35 N 6 16.09 Clear   23 21     90%   23 1013.55        
Jul 16 00:15 Calm 16.09 Clear   23 21     91%   24 1013.55        
Jul 15 23:55 Calm 16.09 Clear   24 22     87%   25 1013.2        
Jul 15 23:35 NE 6 16.09 Mostly Cloudy BKN048 24 21     83%   25 1013.21        
Jul 15 23:15 NE 6 16.09 Cloudy OVC048 24 22     88%   25 1013.21        
Jul 15 22:55 N 5 16.09 Mostly Cloudy BKN048 24 22     90%   24 1012.9        
Jul 15 22:35 Calm 16.09 Clear CLR 24 21     84%   25 1012.87        
Jul 15 22:15 E 5 16.09 Partly Cloudy SCT050 25 21     80%   25 1012.5        
Jul 15 21:55 Calm 16.09 Cloudy OVC050 25 22     83%   26 1012.53        
Jul 15 21:35 Calm 16.09 Cloudy OVC050 25 21     79%   26 1012.19        
Jul 15 21:15 ENE 5 16.09 Mostly Cloudy BKN050 25 21     77%   26 1011.9        
Jul 15 20:55 ENE 7 16.09 Partly Cloudy SCT060 25 21     77%   26 1011.51        
Jul 15 20:35 ENE 11 16.09 Partly Cloudy SCT060 26 21     75%   27 1011.51        
Jul 15 20:15 ENE 9 16.09 Mostly Cloudy BKN060 26 21     73%   28 1011.5        
Jul 15 19:55 ENE 9 16.09 Cloudy OVC060 27 21     70%   29 1011.51        
Jul 15 19:35 ENE 9 16.09 Cloudy SCT037 OVC060 27 21     69%   29 1011.85        
Jul 15 19:15 E 5 16.09 Cloudy SCT035 OVC050 27 21     69%   29 1011.9        
Jul 15 18:55 E 6 16.09 Cloudy BKN037 OVC050 27 21     69%   29 1011.85        
Jul 15 18:35 ENE 11 16.09 Cloudy SCT037 OVC050 28 21     66%   30 1011.85        
Jul 15 18:15 N 8 16.09 Cloudy OVC050 28 21     63%   31 1011.9        
Jul 15 17:55 ENE 7 16.09 Cloudy OVC050 28 22     67%   31 1011.85        
Jul 15 17:35 E 13 16.09 Cloudy OVC050 28 21     64%   30 1011.85        
Jul 15 17:15 ENE 15 16.09 Cloudy OVC050 28 21     65%   30 1011.85        
Jul 15 16:55 NE 17 16.09 Mostly Cloudy BKN048 28 21     64%   30 1012.19        
Jul 15 16:35 NE 9 16.09 Partly Cloudy SCT040 SCT048 29 20     59%   31 1012.19        
Jul 15 16:15 NE 15 16.09 Mostly Cloudy SCT039 BKN048 29 20     60%   31 1012.2        
Jul 15 15:55 ENE 17 16.09 Mostly Cloudy SCT042 BKN048 28 21     64%   31 1012.53        
Jul 15 15:35 NE 19 16.09 Cloudy OVC043 28 20     63%   29 1012.53        
Jul 15 15:15 NE 11 16.09 Cloudy SCT034 OVC045 28 21     64%   30 1012.9        
Jul 15 14:55 NE 20 16.09 Cloudy SCT032 OVC045 28 21     66%   31 1012.87        
Jul 15 14:35 NE 19 16.09 Cloudy SCT032 SCT039 OVC045 28 21     67%   30 1012.87        
Jul 15 14:15 NE 18 16.09 Cloudy SCT037 OVC045 28 21     67%   30 1013.2        
Jul 15 13:55 ENE 15 16.09 Cloudy OVC045 28 20     65%   29 1013.21        
Jul 15 13:35 ENE 20 16.09 Cloudy SCT029 OVC043 27 21     68%   29 1013.55        
Jul 15 13:15 ENE 21 16.09 Cloudy SCT029 BKN035 OVC043 28 21     66%   29 1013.6        
Jul 15 12:55 NNE 15 16.09 Mostly Cloudy SCT029 BKN035 BKN045 27 21     66%   29 1013.88        
Jul 15 12:35 NE 15 16.09 Mostly Cloudy SCT027 BKN043 27 20     65%   29 1013.88        
Jul 15 12:15 NNE 15 16.09 Mostly Cloudy BKN027 SCT033 27 21     69%   29 1014.2        
Jul 15 11:55 ENE 11 16.09 Mostly Cloudy BKN027 BKN033 BKN041 27 21     69%   28 1014.22        
Jul 15 11:35 N 11 16.09 Cloudy BKN025 OVC030 25 20     72%   26 1014.22        
Jul 15 11:15 NE 17 16.09 Cloudy BKN023 OVC032 25 20     73%   25 1014.56        
Jul 15 10:55 NNE 11 16.09 Cloudy OVC023 25 20     74%   26 1014.56        
Jul 15 10:35 NE 13 16.09 Mostly Cloudy BKN021 BKN040 26 21     74%   26 1014.9        
Jul 15 10:15 NE 15 16.09 Mostly Cloudy BKN021 BKN038 25 20     76%   25 1014.9        
Jul 15 09:55 NE 15 16.09 Cloudy OVC021 24 20     76%   24 1015.24        
Jul 15 09:35 NE 19 16.09 Cloudy BKN021 OVC035 24 19     77%   24 1015.24        
Jul 15 09:15 NNE 18 16.09 Cloudy SCT019 OVC035 24 20     79%   24 1015.2        
Jul 15 08:55 NE 19 16.09 Cloudy OVC035 24 20     78%   24 1015.24        
Jul 15 08:35 NE 17 16.09 Cloudy SCT024 OVC035 24 20     79%   24 1015.24        
Jul 15 08:15 NNE 15 16.09 Partly Cloudy SCT024 SCT035 22 20     87%   22 1015.2        
Jul 15 07:55 N 17 16.09 Clear CLR 22 20     87%   23 1015.24        
Jul 15 07:35 N 13 16.09 Clear CLR 21 20     90%   22 1015.24        
Jul 15 07:15 N 13 16.09 Clear CLR 21 19     93%     1014.9        
Jul 15 06:55 N 11 16.09 Clear CLR 20 19     95%     1015.24        
Jul 15 06:35 N 9 16.09 Clear CLR 19 19     96%     1015.24        
Jul 15 06:15 N 9 16.09 Clear CLR 19 18     96%     1014.9        
Jul 15 05:55 NNE 9 16.09 Partly Cloudy SCT023 20 19     93%     1014.9        
Jul 15 05:35 NE 13 16.09 Partly Cloudy SCT023 20 19     95%     1014.56        
Jul 15 05:15 NNE 9 16.09 Partly Cloudy SCT023 19 18     95%     1014.9        
Jul 15 04:55 N 6 16.09 Partly Cloudy SCT023 20 19     93%     1014.9        
Jul 15 04:35 NNE 9 16.09 Clear CLR 20 19     93%     1014.56        
Jul 15 04:15 ENE 11 16.09 Clear CLR 20 19     92%     1014.56        
Jul 15 03:55 NE 11 16.09 Clear CLR 20 19     91%     1014.9        
Jul 15 03:35 ENE 11 16.09 Clear CLR 21 19     91%     1014.9        
Jul 15 03:15 E 11 16.09 Clear CLR 21 19     91%     1015.2        
Jul 15 02:55 E 9 16.09 Clear CLR 21 19     91%     1015.24        
Jul 15 02:35 E 9 16.09 Clear CLR 21 19     89%     1015.58        
Jul 15 02:15 E 11 16.09 Clear CLR 21 19     88%   22 1015.6        
Jul 15 01:55 E 13 16.09 Clear CLR 22 19     87%   22 1015.58        
Jul 15 01:35 E 13 16.09 Clear CLR 22 19     85%   22 1015.92        
Jul 15 01:15 E 17 16.09 Clear CLR 22 20     85%   23 1015.9        
Jul 15 00:55 E 13 16.09 Clear CLR 23 20     84%   23 1015.92        
Jul 15 00:35 E 6 16.09 Clear CLR 22 20     84%   23 1015.92        
Jul 15 00:15 E 6 16.09 Clear CLR 23 20     82%   23 1016.26        
Jul 14 23:55 ESE 11 16.09 Clear CLR 23 20     80%   24 1015.92        
Jul 14 23:35 ESE 11 16.09 Clear CLR 24 20     78%   24 1015.92        
Jul 14 23:15 ESE 15 16.09 Clear CLR 24 20     76%   25 1015.92        
Jul 14 22:55 ESE 17 16.09 Clear CLR 25 20     77%   25 1015.6        
Jul 14 22:35 ESE 15 16.09 Partly Cloudy SCT042 25 20     76%   26 1015.58        
Jul 14 22:15 ESE 15 16.09 Mostly Cloudy BKN043 25 21     76%   26 1015.58        
Jul 14 21:55 ESE 13 16.09 Mostly Cloudy BKN041 26 21     74%   26 1015.58        
Jul 14 21:35 ESE 13 16.09 Partly Cloudy SCT039 SCT047 26 21     74%   28 1015.24        
Jul 14 21:10 ESE 11 16.09 Partly Cloudy SCT039 27 21     73%   28 1014.9        
Jul 14 20:55 ESE 13 16.09 Clear CLR 27 21     71%   29 1014.9        
Jul 14 20:35 E 13 16.09 Clear CLR 27 22     72%   29 1014.9        
Jul 14 20:15 E 13 16.09 Clear CLR 28 22     69%   30 1014.6        
Jul 14 19:55 E 15 16.09 Partly Cloudy SCT042 29 22     66%   31 1014.9        
Jul 14 19:35 E 15 16.09 Partly Cloudy SCT042 30 22     63%   32 1014.9        
Jul 14 19:15 E 21 16.09 Partly Cloudy SCT042 30 22     61%   33 1014.9        
Jul 14 18:55 ESE 15 16.09 Clear CLR 30 21     60%   33 1014.9        
Jul 14 18:35 ESE 17 16.09 Clear CLR 30 22     59%   33 1014.9        
Jul 14 18:15 E 18 16.09 Clear CLR 31 21     58%   33 1014.9        
Jul 14 17:55 E 19 16.09 Clear CLR 31 21     57%   33 1015.24        
Jul 14 17:35 E 17 16.09 Clear CLR 31 22     58%   34 1015.58        
Jul 14 17:15 E 15 16.09 Partly Cloudy SCT055 30 22     63%   33 1015.92        
Jul 14 16:55 E 15 16.09 Partly Cloudy SCT055 31 22     59%   34 1015.9        
Jul 14 16:35 ESE 13 16.09 Mostly Cloudy SCT041 BKN055 30 22     61%   33 1016.26        
Jul 14 16:15 ESE 13 16.09 Mostly Cloudy SCT041 BKN055 31 22     61%   35 1016.59        
Jul 14 15:55 E 13 16.09 Mostly Cloudy BKN055 31 22     59%   34 1016.59        
Jul 14 15:35 E 22 16.09 Mostly Cloudy BKN055 31 22     60%   34 1016.59        
Jul 14 15:15 SE 13 16.09 Mostly Cloudy BKN049 31 23     63%   35 1016.9        
Jul 14 14:55 SE 19 16.09 Cloudy SCT038 OVC049 31 23     64%   35 1016.93        
Jul 14 14:35 ESE 19 16.09 Cloudy SCT038 OVC049 30 23     64%   34 1016.93        
Jul 14 14:10 ESE 18 16.09 Mostly Cloudy SCT038 BKN049 30 23     66%   35 1016.9        
Jul 14 13:55 SE 17 16.09 Cloudy BKN039 OVC049 30 22     64%   33 1016.93        
Jul 14 13:35 ESE 19 16.09 Cloudy BKN039 OVC049 29 22     66%   33 1017.27        
Jul 14 13:15 E 17 16.09 Cloudy SCT034 BKN040 OVC049 30 22     64%   33 1017.3        
Jul 14 12:55 E 9 16.09 Cloudy BKN031 BKN040 OVC055 30 23     67%   34 1017.3        
Jul 14 12:35 ESE 13 16.09 Cloudy BKN031 OVC038 29 23     71%   33 1017.61        
Jul 14 12:15 E 11 16.09 Mostly Cloudy SCT027 BKN033 BKN039 29 24     72%   34 1017.3        
Jul 14 11:55 E 17 16.09 Mostly Cloudy SCT027 BKN035 BKN041 29 24     71%   34 1017.27        
Jul 14 11:35 ESE 7 16.09 Cloudy SCT025 BKN035 OVC041 29 24     74%   33 1017.61        
Jul 14 11:15 ESE 9 16.09 Cloudy SCT023 BKN030 OVC035 28 23     75%   32 1017.61        
Jul 14 10:55 ESE 13 16.09 Cloudy BKN023 OVC028 28 24     77%   32 1017.61        
Jul 14 10:35 SSE 9 16.09 Cloudy BKN021 OVC028 28 24     78%   32 1017.61        
Jul 14 10:15 SE 13 16.09 Mostly Cloudy BKN018 28 24     79%   31 1017.6        
Jul 14 09:55 SE 15 16.09 Clear CLR 28 24     80%   32 1017.61        
Jul 14 09:35 ESE 15 16.09 Clear CLR 27 24     82%   30 1017.61        
Jul 14 09:15 SSE 15 16.09 Clear CLR 27 24     83%   29 1018        
Jul 14 08:55 ESE 13 16.09 Partly Cloudy SCT019 26 24     85%   29 1017.95        
Jul 14 08:35 ESE 13 16.09 Partly Cloudy SCT019 SCT070 26 23     86%   28 1017.95        
Jul 14 08:15 E 11 16.09 Partly Cloudy SCT070 26 23     87%   26 1017.95        
Jul 14 07:55 ENE 11 16.09 Clear CLR 25 23     88%   26 1017.95        
Jul 14 07:35 NE 11 16.09 Clear CLR 24 22     90%   25 1017.61        
Jul 14 07:15 NNE 9 16.09 Clear CLR 23 22     92%   24 1017.3        
Jul 14 06:55 N 9 16.09 Clear CLR 23 22     95%   23 1016.93        
Jul 14 06:35 NE 6 16.09 Clear CLR 22 21     95%   23 1016.93        
Jul 14 06:15 N 5 16.09 Clear CLR 23 21     92%   23 1016.6        
Jul 14 05:55 NE 11 16.09 Clear CLR 23 22     91%   24 1016.59        
Jul 14 05:35 NE 9 16.09 Clear CLR 23 22     91%   24 1016.59        
Jul 14 05:15 ENE 9 16.09 Clear CLR 23 22     91%   24 1016.6        
Jul 14 04:50 ENE 11 16.09 Clear CLR 23 22     92%   24 1016.59        
Jul 14 04:35 NE 11 16.09 Clear CLR 23 22     92%   24 1016.59        
Jul 14 04:15 NNE 13 16.09 Clear CLR 23 21     94%   23 1016.3        
Jul 14 03:55 NNE 11 16.09 Clear CLR 23 21     92%   24 1016.26        
Jul 14 03:35 NNE 11 16.09 Clear CLR 23 21     92%   23 1016.26        
Jul 14 03:15 NNE 11 16.09 Clear CLR 23 22     92%   24 1016.26        
Jul 14 02:55 NE 9 16.09 Clear CLR 23 22     91%   24 1016.3        
Jul 14 02:35 NNE 11 16.09 Clear CLR 23 22     92%   24 1016.26        
Jul 14 02:15 NE 9 16.09 Clear CLR 24 22     89%   24 1016.59        
Jul 14 01:55 NE 9 16.09 Clear CLR 24 22     87%   25 1016.59        
Jul 14 01:35 ENE 9 16.09 Clear CLR 25 22     84%   25 1016.59        
Jul 14 01:15 ENE 11 16.09 Clear CLR 25 22     84%   25 1016.9        
Jul 14 00:55 NE 13 16.09 Clear CLR 25 22     86%   25 1016.93        
Jul 14 00:35 NNE 11 16.09 Clear CLR 24 22     90%   25 1016.93        
Jul 14 00:15 NE 9 16.09 Clear CLR 24 23     89%   25 1016.9        
Jul 13 23:55 N 11 16.09 Clear CLR 24 22     89%   25 1016.93        
Jul 13 23:35 NNE 7 16.09 Clear CLR 25 22     88%   25 1016.59        
Jul 13 23:15 NE 7 16.09 Clear CLR 25 22     84%   26 1016.59        
Jul 13 22:55 NE 9 16.09 Clear CLR 26 22     79%   28 1016.26        
Jul 13 22:35 ENE 9 16.09 Clear CLR 26 22     77%   28 1015.92        
Jul 13 22:15 ENE 9 16.09 Clear CLR 27 22     75%   29 1015.58        
Jul 13 21:55 ENE 7 16.09 Clear CLR 27 22     76%   29 1015.58        
Jul 13 21:35 E 7 16.09 Clear CLR 27 22     73%   30 1015.24        
Jul 13 21:15 E 8 16.09 Clear CLR 27 22     73%   29 1014.9        
Jul 13 20:55 E 9 16.09 Clear CLR 28 22     72%   30 1014.9        
Jul 13 20:35 E 7 16.09 Clear CLR 28 22     69%   31 1014.9        
Jul 13 20:15 E 9 16.09 Clear CLR 29 22     67%   32 1014.9        
Jul 13 19:55 E 9 16.09 Clear CLR 30 22     65%   33 1014.9        
Jul 13 19:35 E 11 16.09 Clear CLR 30 22     62%   33 1014.9        
Jul 13 19:15 ESE 11 16.09 Clear CLR 30 22     60%   34 1014.6        
Jul 13 18:55 ESE 13 16.09 Clear CLR 31 22     59%   34 1014.56        
Jul 13 18:35 ESE 15 16.09 Clear CLR 31 22     57%   34 1014.56        
Jul 13 18:15 E 11 16.09 Clear CLR 31 21     55%   35 1014.9        
Jul 13 17:55 E 17 16.09 Clear CLR 32 22     55%   35 1014.9        
Jul 13 17:35 E 17 16.09 Clear CLR 32 21     52%   35 1014.9        
Jul 13 17:15 E 13 16.09 Clear CLR 32 20     50%   34 1015.2        
Jul 13 16:55 E 13 16.09 Clear CLR 32 20     50%   34 1015.24        
Jul 13 16:35 E 15 16.09 Clear CLR 32 19     48%   33 1015.24        
Jul 13 16:15 ENE 21 16.09 Clear CLR 32 20     49%   33 1015.6        
Jul 13 15:55 E 19 16.09 Clear CLR 32 20     49%   33 1015.92        
Jul 13 15:35 E 19 16.09 Clear CLR 32 20     50%   34 1015.92        
Jul 13 15:15 E 17 16.09 Clear CLR 32 19     48%   33 1016.3        
Jul 13 14:55 ENE 20 16.09 Clear CLR 31 20     50%   33 1016.26        
Jul 13 14:35 ENE 20 16.09 Clear CLR 31 19     49%   33 1016.26        
Jul 13 14:15 ENE 15 16.09 Clear CLR 31 21     54%   34 1016.26        
Jul 13 13:55 E 19 16.09 Partly Cloudy SCT049 31 20     52%   33 1016.59        
Jul 13 13:35 ENE 17 16.09 Partly Cloudy SCT047 31 20     51%   33 1016.59        
Jul 13 13:15 E 21 16.09 Clear CLR 31 21     56%   33 1016.6        
Jul 13 12:55 E 20 16.09 Partly Cloudy SCT044 30 21     56%   33 1016.93        
Jul 13 12:35 E 19 16.09 Partly Cloudy SCT044 30 21     57%   33 1016.93        
Jul 13 12:15 E 11 16.09 Partly Cloudy SCT042 SCT050 30 21     60%   33 1016.9        
Jul 13 11:55 E 20 16.09 Partly Cloudy SCT039 30 22     61%   33 1017.27        
Jul 13 11:35 E 11 16.09 Partly Cloudy SCT037 SCT050 30 21     61%   32 1017.27        
Jul 13 11:15 E 13 16.09 Partly Cloudy SCT033 SCT060 29 22     67%   31 1017.3        
Jul 13 10:55 E 7 16.09 Partly Cloudy SCT031 29 21     64%   31 1017.27        
Jul 13 10:35 E 11 16.09 Clear CLR 29 22     69%   31 1017.61        
Jul 13 10:15 E 8 16.09 Clear CLR 28 22     70%   31 1017.6        
Jul 13 09:55 NE 7 16.09 Clear CLR 28 23     74%   30 1017.61        
Jul 13 09:35 E 6 16.09 Clear CLR 27 22     74%   29 1017.61        
Jul 13 09:15 E 8 16.09 Clear CLR 27 22     78%   29 1017.6        
Jul 13 08:55 E 7 16.09 Clear CLR 26 22     81%   26 1017.27        
Jul 13 08:35 NNE 7 16.09 Clear CLR 25 22     85%   25 1016.93        
Jul 13 08:15 NNE 9 16.09 Clear CLR 24 22     88%   25 1016.9        
Jul 13 07:55 NNE 7 16.09 Clear CLR 23 21     89%   24 1016.59        
Jul 13 07:35 NNE 6 16.09 Clear CLR 23 21     91%   23 1016.26        
Jul 13 07:15 Calm 16.09 Clear CLR 22 20     92%   22 1016.3        
Jul 13 06:55 NNE 6 16.09 Clear CLR 21 20     96%     1015.92        
Jul 13 06:35 NNE 7 16.09 Clear CLR 20 19     95%     1015.92        
Jul 13 06:15 Calm 16.09 Clear CLR 21 20     95%     1015.6        
Jul 13 05:55 Calm 16.09 Clear CLR 21 20     95%     1015.6        
Jul 13 05:35 N 7 16.09 Clear CLR 20 20     95%     1015.58        
Jul 13 05:15 NE 5 16.09 Clear CLR 21 20     95%     1015.6        
Jul 13 04:55 N 6 16.09 Clear CLR 21 20     96%     1015.58        
Jul 13 04:35 NE 7 16.09 Clear CLR 21 20     94%     1015.24        
Jul 13 04:15 NE 5 16.09 Clear CLR 21 20     95%     1015.2        
Jul 13 03:55 NNE 7 16.09 Clear CLR 21 20     93%     1014.9        
Jul 13 03:35 N 6 16.09 Clear CLR 21 20     94%     1015.24        
Jul 13 03:15 ENE 5 16.09 Clear CLR 22 20     91%   22 1015.2        
Jul 13 02:55 N 8 16.09 Clear CLR 21 20     93%     1015.2        
Jul 13 02:35 NNE 5 16.09 Clear CLR 22 20     92%   22 1015.2        
Jul 13 02:15 N 5 16.09 Clear CLR 22 20     91%   22 1015.2        
Jul 13 01:55 N 7 16.09 Clear CLR 22 21     93%   22 1015.24        
Jul 13 01:35 NNE 6 16.09 Clear CLR 22 20     92%   22 1014.9        
Jul 13 01:15 ENE 7 16.09 Clear CLR 23 21     88%   23 1014.9        
Jul 13 00:55 NNE 8 16.09 Clear CLR 22 21     91%   23 1014.9        
Jul 13 00:35 NE 9 16.09 Clear CLR 22 21     91%   23 1014.9        
Jul 13 00:15 NNE 9 16.09 Clear CLR 23 21     88%   23 1014.9        
Jul 12 23:55 NNE 9 16.09 Clear CLR 22 21     90%   23 1014.6        
Jul 12 23:35 N 9 16.09 Clear CLR 22 20     88%   23 1014.56        
Jul 12 23:15 NE 5 16.09 Clear CLR 23 21     86%   24 1014.2        
Jul 12 22:55 ENE 7 16.09 Clear CLR 24 20     78%   25 1014.22        
Jul 12 22:35 ENE 7 16.09 Clear CLR 25 21     78%   25 1014.22        
Jul 12 22:15 ENE 8 16.09 Clear CLR 25 21     79%   25 1014.2        
Jul 12 21:55 ENE 7 16.09 Clear CLR 25 21     81%   25 1014.22        
Jul 12 21:35 ENE 6 16.09 Clear CLR 26 21     73%   26 1013.88        
Jul 12 21:15 E 8 16.09 Clear CLR 26 21     70%   28 1013.6        
Jul 12 20:55 E 7 16.09 Clear CLR 26 21     70%   28 1013.55        
Jul 12 20:35 E 7 16.09 Clear CLR 27 20     66%   28 1013.55        
Jul 12 20:15 E 11 16.09 Clear CLR 28 21     65%   30 1013.55        
Jul 12 19:55 E 9 16.09 Clear CLR 28 20     61%   30 1013.88        
Jul 12 19:35 E 11 16.09 Clear CLR 29 20     58%   31 1013.88        
Jul 12 19:15 E 13 16.09 Clear CLR 29 20     58%   31 1013.6        
Jul 12 18:55 E 15 16.09 Clear CLR 30 20     56%   31 1013.55        
Jul 12 18:35 ENE 9 16.09 Clear CLR 30 20     54%   32 1013.88        
Jul 12 18:15 ENE 9 16.09 Clear CLR 30 20     54%   32 1013.88        
Jul 12 17:55 E 11 16.09 Partly Cloudy SCT049 SCT060 30 20     55%   32 1014.22        
Jul 12 17:35 ESE 9 16.09 Partly Cloudy SCT060 30 20     55%   32 1014.22        
Jul 12 17:15 E 13 16.09 Clear CLR 30 20     54%   32 1014.6        
Jul 12 16:55 ENE 7 16.09 Partly Cloudy SCT055 30 20     56%   32 1014.56        
Jul 12 16:35 ENE 9 16.09 Mostly Cloudy SCT048 BKN055 30 20     56%   32 1014.56        
Jul 12 16:15 E 15 16.09 Mostly Cloudy SCT048 BKN055 30 20     55%   32 1014.9        
Jul 12 15:55 SSE 9 16.09 Partly Cloudy SCT046 SCT055 30 21     58%   32 1014.9        
Jul 12 15:35 E 17 16.09 Mostly Cloudy SCT046 BKN055 30 21     58%   32 1015.24        
Jul 12 15:15 SE 13 16.09 Mostly Cloudy BKN049 29 20     59%   30 1015.2        
Jul 12 14:55 E 17 16.09 Mostly Cloudy BKN049 30 20     55%   32 1015.24        
Jul 12 14:35 SE 11 16.09 Mostly Cloudy BKN047 30 20     56%   32 1015.24        
Jul 12 14:15 NE 13 16.09 Partly Cloudy SCT045 30 20     56%   31 1015.2        
Jul 12 13:55 ENE 17 16.09 Mostly Cloudy BKN045 29 20     58%   30 1015.24        
Jul 12 13:35 ESE 11 16.09 Mostly Cloudy BKN045 29 20     57%   31 1015.58        
Jul 12 13:15 E 15 16.09 Mostly Cloudy BKN046 BKN060 28 19     57%   29 1015.58        
Jul 12 12:55 ESE 11 16.09 Mostly Cloudy BKN042 28 19     60%   29 1015.92        
Jul 12 12:35 E 11 16.09 Mostly Cloudy BKN042 BKN049 28 19     58%   29 1015.92        
Jul 12 12:15 E 11 16.09 Partly Cloudy SCT040 SCT049 28 21     63%   30 1015.9        
Jul 12 11:55 ESE 13 11.27 Mostly Cloudy BKN047 28 20     61%   30 1016.3        
Jul 12 11:35 NE 9 16.09 Mostly Cloudy SCT040 BKN046 27 19     61%   28 1016.26        
Jul 12 11:15 E 6 16.09 Mostly Cloudy SCT033 BKN046 27 20     63%   29 1016.26        
Jul 12 10:55 ENE 13 16.09 Partly Cloudy SCT033 28 21     66%   29 1016.59        
Jul 12 10:35 ENE 11 16.09 Partly Cloudy SCT033 27 20     67%   29 1016.26        
Jul 12 10:15 NE 8 16.09 Clear CLR 27 20     67%   28 1016.3        
Jul 12 09:55 NE 9 16.09 Clear CLR 26 20     70%   26 1016.26        
Jul 12 09:35 ENE 7 16.09 Clear CLR 26 20     73%   26 1016.26        
Jul 12 09:15 NE 5 11.27 Haze CLR 25 20     75%   25 1016.3        
Jul 12 08:55 NNE 5 16.09 Clear CLR 24 20     80%   24 1016.3        
Jul 12 08:35 NE 6 16.09 Clear CLR 23 20     82%   23 1016.26        
Jul 12 08:15 NNE 8 16.09 Clear CLR 22 20     86%   23 1016.3        
Jul 12 07:55 NNE 9 16.09 Clear CLR 21 19     87%   22 1015.92        
Jul 12 07:35 NNE 9 16.09 Clear CLR 21 19     88%     1015.92        
Jul 12 07:15 NNE 9 16.09 Clear CLR 20 19     91%     1015.9        
Jul 12 06:55 N 6 16.09 Clear CLR 19 18     95%     1015.92        
Jul 12 06:35 N 6 16.09 Clear CLR 19 18     97%     1015.92        
Jul 12 06:15 NNE 8 16.09 Clear CLR 18 18     97%     1015.6        
Jul 12 05:55 Calm 16.09 Clear CLR 19 18     96%     1015.58        
Jul 12 05:35 Calm 16.09 Clear CLR 19 18     95%     1015.58        
Jul 12 05:15 Calm 16.09 Clear CLR 19 18     95%     1015.6        
Jul 12 04:55 N 7 16.09 Clear CLR 19 18     96%     1015.58        
Jul 12 04:35 Calm 16.09 Clear CLR 19 19     95%     1015.58        
Jul 12 04:15 Calm 16.09 Clear CLR 19 18     94%     1015.6        
Jul 12 03:55 NW 6 16.09 Clear CLR 19 18     94%     1015.58        
Jul 12 03:35 NW 6 16.09 Clear CLR 19 18     95%     1015.92        
Jul 12 03:15 Calm 16.09 Clear CLR 20 18     93%     1015.92        
Jul 12 02:55 Calm 16.09 Clear CLR 20 19     94%     1016.3        
Jul 12 02:35 Calm 16.09 Clear CLR 20 18     93%     1016.26        
Jul 12 02:15 Calm 16.09 Clear CLR 20 19     91%     1016.3        
Jul 12 01:55 Calm 16.09 Clear CLR 21 19     89%     1016.26        
Jul 12 01:35 Calm 16.09 Clear CLR 20 19     91%     1016.26        
Jul 12 01:15 Calm 16.09 Clear CLR 21 19     91%     1015.9        
Jul 12 00:55 Calm 16.09 Clear CLR 21 19     87%     1015.92        
Jul 12 00:35 Calm 16.09 Clear CLR 21 19     87%   22 1015.92        
Jul 12 00:15 Calm 16.09 Clear CLR 21 19     87%   22 1015.58        
Jul 11 23:55 N 6 16.09 Clear CLR 22 19     87%   22 1015.58        
Jul 11 23:35 Calm 16.09 Clear CLR 22 20     88%   22 1015.58        
Jul 11 23:15 N 5 16.09 Clear CLR 22 20     88%   22 1015.6        
Jul 11 22:55 N 6 16.09 Clear CLR 22 19     84%   23 1015.24        
Jul 11 22:35 N 6 16.09 Clear CLR 22 20     85%   23 1015.58        
Jul 11 22:15 N 5 16.09 Clear CLR 23 19     77%   23 1015.6        
Jul 11 21:55 NNW 7 16.09 Clear CLR 23 19     81%   23 1015.24        
Jul 11 21:35 NNE 7 16.09 Clear CLR 24 19     72%   24 1015.24        
Jul 11 21:15 N 9 16.09 Clear CLR 24 19     75%   24 1015.2        
Jul 11 20:55 N 9 16.09 Clear CLR 24 19     72%   25 1015.24        
Jul 11 20:35 N 11 16.09 Clear CLR 25 19     69%   26 1015.24        
Jul 11 20:15 N 11 16.09 Clear CLR 26 19     63%   27 1015.2        
Jul 11 19:55 N 7 16.09 Clear CLR 28 19     60%   29 1015.24        
Jul 11 19:35 NNE 11 16.09 Clear CLR 28 18     53%   29 1015.58        
Jul 11 19:15 N 13 16.09 Clear CLR 29 18     53%   30 1015.6        
Jul 11 18:55 NNW 17 16.09 Clear CLR 29 18     50%   30 1015.58        
Jul 11 18:35 NNW 15 16.09 Clear CLR 29 17     47%   30 1015.58        
Jul 11 18:15 NNW 17 16.09 Clear CLR 30 18     48%   30 1015.6        
Jul 11 17:55 NNW 19 16.09 Clear CLR 30 17     47%   30 1015.92        
Jul 11 17:35 NNW 19 16.09 Clear CLR 30 17     46%   30 1015.92        
Jul 11 17:15 NNW 24 16.09 Clear CLR 30 18     48%   31 1016.3        
Jul 11 16:55 N 17 16.09 Clear CLR 30 18     48%   31 1016.3        
Jul 11 16:35 N 22 16.09 Clear CLR 30 18     48%   31 1016.59        
Jul 11 16:15 N 18 16.09 Clear CLR 30 18     48%   31 1016.6        
Jul 11 15:55 N 20 16.09 Clear CLR 30 18     47%   31 1016.93        
Jul 11 15:35 NNW 19 16.09 Clear CLR 30 19     51%   31 1016.93        
Jul 11 15:15 NW 13 16.09 Clear CLR 30 19     52%   31 1017.3        
Jul 11 14:55 NNW 13 16.09 Clear CLR 29 19     52%   30 1017.3        
Jul 11 14:35 N 17 16.09 Partly Cloudy SCT049 29 18     52%   30 1017.61        
Jul 11 14:15 N 13 16.09 Clear CLR 29 19     53%   30 1017.6        
Jul 11 13:55 N 22 16.09 Clear CLR 29 18     53%   30 1018        
Jul 11 13:35 NNW 17 16.09 Clear CLR 29 19     54%   30 1017.95        
Jul 11 12:55 N 11 16.09 Clear CLR 28 18     54%   29 1018.63        
Jul 11 12:35 NNE 15 16.09 Clear CLR 28 19     56%   29 1018.63        
Jul 11 11:55 NE 21 16.09 Clear CLR 28 19     58%   29 1019        
Jul 11 11:35 N 18 16.09 Clear CLR 28 19     59%   29 1019.3        
Jul 11 10:55 NNE 17 16.09 Clear CLR 27 19     60%   28 1019.3        
Jul 11 10:35 NNE 18 16.09 Clear CLR 27 19     61%   28 1019.7        
Jul 11 10:15 NE 19 16.09 Clear CLR 26 19     63%   27 1019.98        
Jul 11 09:55 NE 18 16.09 Clear CLR 26 19     66%   26 1020        
Jul 11 09:35 NE 15 16.09 Clear CLR 26 19     68%   26 1020.3        
Jul 11 09:15 NNE 15 16.09 Clear CLR 25 19     69%   25 1020        
Jul 11 08:55 NNE 18 16.09 Clear CLR 24 19     73%   25 1020        
Jul 11 08:35 NNE 11 16.09 Clear CLR 24 19     76%   24 1020        
Jul 11 08:15 N 11 16.09 Clear CLR 23 20     82%   23 1020        
Jul 11 07:55 N 11 16.09 Clear CLR 22 20     86%   22 1020        
Jul 11 07:35 N 11 16.09 Clear CLR 21 19     88%   22 1019.98        
Jul 11 07:15 NNE 11 16.09 Clear CLR 21 19     90%     1019.64        
Notice The following observation data may not be complete
Jul 11 06:55   16.09 Clear CLR          %              
Jul 11 06:35 NNE 9 16.09 Clear CLR 20 18     89%     1019.7        
Jul 11 06:15 N 11 16.09 Clear CLR 20 18     88%     1019.3        
Jul 11 05:55 NNE 9 16.09 Clear CLR 20 18     91%     1019.3        
Jul 11 05:35 N 13 16.09 Clear CLR 20 18     91%     1018.96        
Jul 11 04:55 NNE 13 16.09 Clear CLR 21 19     87%     1018.6        
Jul 11 04:35 N 13 16.09 Clear CLR 21 18     84%   22 1018.29        
Jul 11 04:15 N 17 16.09 Clear CLR 22 19     83%   22 1017.95        
Jul 11 03:55 N 11 16.09 Clear CLR 21 19     87%   22 1017.95        
Jul 11 03:35 N 11 16.09 Clear CLR 22 19     87%   22 1018.29        
Jul 11 03:15 N 9 16.09 Clear CLR 22 19     87%   22 1018.6        
Jul 11 02:55 N 11 16.09 Clear CLR 22 20     85%   23 1018.6        
Jul 11 02:35 N 11 16.09 Clear CLR 22 20     86%   23 1018.63        
Jul 11 02:15 N 13 16.09 Clear CLR 23 21     88%   23 1018.96        
Jul 11 01:55 NNE 7 16.09 Partly Cloudy SCT049 23 21     90%   24 1018.96        
Jul 11 01:35 NNE 9 16.09 Partly Cloudy SCT047 23 21     88%   24 1018.96        
Jul 11 01:15 N 13 16.09 Partly Cloudy SCT045 24 21     87%   24 1019        
Jul 11 00:55 N 8 16.09 Partly Cloudy SCT042 24 22     93%   24 1019        
Jul 11 00:35 N 9 16.09 Mostly Cloudy BKN042 24 22     90%   25 1018.96        
Jul 11 00:15 NNE 9 16.09 Mostly Cloudy BKN042 24 22     90%   25 1018.96        
Jul 10 23:55 N 11 16.09 Partly Cloudy SCT038 24 22     89%   25 1019        
Jul 10 23:35 N 11 16.09 Clear CLR 24 22     89%   25 1018.96        
Jul 10 23:15 NNE 11 16.09 Clear CLR 25 22     88%   25 1018.6        
Jul 10 22:55 N 11 16.09 Clear CLR 25 23     86%   26 1018.96        
Jul 10 22:35 N 7 16.09 Partly Cloudy SCT080 26 23     84%   27 1018.96        
Jul 10 22:15 NNW 9 16.09 Mostly Cloudy BKN080 26 23     85%   28 1018.63        
Notice The following observation data may not be complete
Jul 10 21:55   16.09 Clear CLR          %              
Jul 10 21:35 Calm 16.09 Clear CLR 26 24     92%   27 1017.95        
Jul 10 21:15 Calm 16.09 Clear CLR 27 23     79%   29 1018        
Jul 10 20:55 Calm 16.09 Clear CLR 27 23     82%   29 1017.6        
Jul 10 20:35 Calm 16.09 Clear CLR 27 24     84%   29 1017.95        
Jul 10 20:15 Calm 16.09 Clear CLR 27 24     84%   30 1017.61        
Jul 10 19:55 S 9 16.09 Clear CLR 28 24     78%   32 1017.61        
Jul 10 19:35 SSE 9 16.09 Clear CLR 29 24     74%   33 1017.27        
Jul 10 19:15 ESE 9 16.09 Clear CLR 29 23     71%   33 1017.3        
Jul 10 18:55 E 7 16.09 Clear CLR 30 23     66%   33 1017.27        
Jul 10 18:35 E 11 16.09 Clear CLR 30 23     65%   34 1017.6        
Jul 10 18:15 ENE 13 16.09 Clear CLR 30 23     64%   34 1017.3        
Jul 10 17:55 NNE 9 16.09 Clear CLR 30 23     63%   34 1017.3        
Jul 10 17:35 NE 13 16.09 Clear CLR 30 23     64%   34 1016.93        
Jul 10 17:15 NE 11 16.09 Clear CLR 30 23     65%   34 1016.9        
Jul 10 16:55 Calm 16.09 Clear CLR 29 22     66%   33 1016.93        
Notice The following observation data may not be complete
Jul 10 16:35   16.09 Clear CLR          %              
Jul 10 16:15 Calm 16.09 Clear CLR 29 22     69%   31 1016.93        
Jul 10 15:15 SSE 8 16.09 Clear CLR 27 22     72%   29 1016.9        
Jul 10 14:35 SE 9 16.09 Clear CLR 27 22     72%   29 1017.6   0    
Jul 10 14:15 E 9 16.09 Clear CLR 27 22     74%   29 1016.9   0    
Jul 10 13:55 ENE 9 16.09 Clear CLR 26 22     77%   28 1017.6        
Jul 10 13:30 NE 8 16.09 Clear CLR 25 22     84%   25 1017.6        
Jul 10 13:15 N 9 16.09 Clear CLR 24 22     88%   24 1017.6        
Jul 10 12:55 N 11 16.09 Clear CLR 23 21     90%   24 1018.63        
Jul 10 12:35 E 15 16.09 Clear   23 21     89%   23 1018        
Jul 10 12:15 ENE 9 16.09 Clear   23 21     89%   23 1018.96        
Jul 10 11:55 E 17 16.09 Clear   23 21     90%   23 1019.3   1    
Jul 10 11:35   16.09 Mostly Cloudy SCT027 SCT050 BKN090 22 21     93%   23 1019.7   1    
Notice The following observation data may not be complete
Jul 10 11:15 NNE 39 2.41 Thunderstorms and Heavy Rain and Fog/Mist SCT004 BKN021 OVC033   21      %     1019.98   1    
Jul 10 10:55   2.41 Thunderstorms and Heavy Rain and Fog/Mist SCT019 BKN033 OVC040 22 21     92%   23 1020.3   0    
Jul 10 10:35 NW 8 16.09 Mostly Cloudy SCT040 BKN047 BKN065 31 25     73%   38 1018.3        
Jul 10 10:15 NW 8 16.09 Partly Cloudy SCT043 SCT050 SCT065 30 25     77%   37 1017.6        
Jul 10 09:55 W 5 16.09 Partly Cloudy SCT041 SCT047 SCT055 30 25     77%   36 1018.3        
Jul 10 09:35 ESE 8 16.09 Partly Cloudy SCT055 29 25     78%   35 1018.3        
Jul 10 09:15 NNE 8 16.09 Partly Cloudy SCT046 SCT055 29 25     80%   34 1018        
Jul 10 08:55 N 9 16.09 Cloudy BKN050 OVC055 28 25     82%   33 1018        
Jul 10 08:35 Calm 16.09 Partly Cloudy SCT050 28 25     81%   32 1017.6        
Jul 10 08:15 Calm 16.09 Clear CLR 27 24     83%   31 1017.27        
Jul 10 07:55 Calm 16.09 Clear CLR 27 24     87%   30 1016.59        
Jul 10 07:35 Calm 16.09 Clear CLR 26 24     91%   28 1016.26        
May 15 13:35 WSW 17 16.09 Mostly Cloudy BKN034 BKN039 BKN060 27 20     69%   28 1015.2        
May 15 04:15 SE 22 16.09 Clear CLR 17 16     93%     1011.5        
May 14 22:35   8.05 Thunderstorms and Haze BKN050 BKN060 BKN120 23 17     66%   24 1013.2        
May 14 11:55 SSW 33 16.09 Clear and Windy CLR 30 21     61%   32 1013.2        
May 14 11:15 S 39 16.09 Clear and Windy CLR 29 21     63%   31 1013.2        
May 14 10:55 SSW 33 16.09 Clear and Windy CLR 27 20     66%   29 1013.6        
May 14 08:55 S 21 16.09 Clear CLR 23 20     80%   24 1013.9        
May 14 06:35 S 15 16.09 Clear CLR 21 19     84%   22 1012.9        
Notice The following observation data may not be complete
May 14 00:55   16.09 Clear CLR          %              
May 13 19:55 S 22 16.09 Clear CLR 27 17     55%   28 1012.2        
May 13 08:55 S 26 16.09 Clear CLR 24 20     78%   25 1015.2        
May 13 06:35 S 11 16.09 Clear CLR 19 18     93%     1014.6        
May 13 02:15 SSE 9 16.09 Clear CLR 19 18     90%     1014.2        
May 13 00:35 S 5 16.09 Clear CLR 20 18     86%     1014.9        
May 12 21:15 S 15 16.09 Mostly Cloudy BKN041 25 19     70%   25 1012.9        
May 12 16:15 S 33 16.09 Clear and Windy   29 21     62%   31 1011.9        
May 12 04:35 SSE 17 16.09 Clear CLR 21 17     78%     1010.2        
May 12 01:55 S 22 16.09 Clear CLR 23 17     72%   23 1009.2        
May 11 14:15 S 35 16.09 Clear and Windy CLR 28 18     53%   29 1008.1        
May 11 09:35 SSW 37 16.09 Clear and Windy CLR 23 16     66%   23 1009.2        
Jun 12 08:15 S 28 16.09 Clear CLR 23 20     83%   24 1013.2        
Jun 12 07:12 SSE 17 16.09 Clear CLR 22 18     78%   22 1012.87        
Jun 12 05:55 S 17 16.09 Clear CLR 21 17     78%     1012.2        
Jun 12 05:12 S 19 16.09 Clear CLR 22 17     73%   22 1011.85        
Jun 12 02:12 SSE 17 16.09 Clear CLR 22 18     78%   22 1011.85        
Jun 12 01:52 SSE 17 16.09 Clear CLR 22 18     78%   22 1012.19        
Notice The following observation data may not be complete
Jun 12 00:15   16.09 Clear CLR          %              
Notice The following observation data may not be complete
Jun 11 23:15   16.09 Clear CLR          %              
Notice The following observation data may not be complete
Jun 11 22:47   16.09 Clear CLR          %              
Notice The following observation data may not be complete
Jun 11 21:42   16.09 Clear CLR          %              
Jun 11 21:07 SSE 22 16.09 Clear CLR 26 18     61%   26 1010.5        
Jun 11 19:27 SSE 24 16.09 Clear CLR 28 19     58%   29 1010.16        
Notice The following observation data may not be complete
Jun 11 18:42   16.09 Clear CLR          %              
Jun 11 18:12 SSE 33 16.09 Clear and Windy CLR 29 19     55%   30 1010.16        
Jun 11 17:27 SSE 31 16.09 Clear and Windy CLR 30 19     52%   31 1010.5        
Jun 11 17:12 SSE 43 16.09 Clear and Breezy CLR 30 19     52%   31 1010.5        
Jun 11 16:32 S 39 16.09 Clear and Windy CLR 30 19     52%   31 1010.5        
Jun 11 15:17 SSE 39 16.09 Partly Cloudy and Windy SCT043 31 19     49%   32 1011.18        
Notice The following observation data may not be complete
Jun 11 15:15   16.09 Partly Cloudy SCT043          %              
Jun 11 15:12 SSE 43 16.09 Clear and Breezy   31 19     49%   32 1011.18        
Jun 11 14:52 S 35 16.09 Clear and Windy CLR 31 19     49%   32 1011.18        
Jun 11 12:42 S 31 16.09 Clear and Windy CLR 30 18     49%   31 1011.51        
Notice The following observation data may not be complete
Jun 11 11:47   16.09 Clear CLR          %              
Jun 11 11:32 S 37 16.09 Clear and Windy CLR 29 18     52%   30 1011.51        
Jun 11 10:42 S 31 16.09 Clear and Windy CLR 28 18     55%   29 1011.18        
Jun 11 10:07 S 33 16.09 Clear and Windy CLR 27 18     58%   28 1011.51        
Jun 11 08:02 S 30 16.09 Clear CLR 23 17     69%   23 1011.51        
Jun 11 07:12 SSE 28 16.09 Clear CLR 22 17     73%   22 1011.51        
Jun 11 07:07 SSE 26 16.09 Clear CLR 22 17     73%   22 1011.18        
Jun 11 06:52 SSE 26 16.09 Clear CLR 22 17     73%   22 1011.18        
Jun 11 05:12 SSE 20 16.09 Clear CLR 22 17     73%   22 1010.84        
Jun 11 04:32 S 22 16.09 Clear CLR 22 17     73%   22 1010.84        
Jun 11 02:42 S 26 16.09 Clear   23 17     69%   23 1010.5        
Jun 11 02:32 S 24 16.09 Clear CLR 23 17     69%   23 1010.84        
Jun 11 01:15 S 32 16.09 Clear and Windy CLR 23 17     69%   23 1010.5        
Jun 11 00:55 S 26 16.09 Clear CLR 23 17     69%   23 1010.8        
Jun 11 00:15 S 26 16.09 Clear CLR 23 17     69%   23 1010.8        
Jun 10 22:22 SSE 22 16.09 Clear CLR 25 18     65%   25 1010.16        
Jun 10 22:07 S 28 16.09 Clear   25 18     65%   25 1009.82        
Jun 10 21:12 SSE 22 16.09 Clear CLR 26 18     61%   26 1009.14        
Jun 10 18:35 S 28 16.09 Clear CLR 28 18     55%   29 1008.1        
Jun 10 18:27 SSE 35 16.09 Partly Cloudy and Windy SCT040 29 19     55%   30 1008.13        
Jun 10 18:17 SSE 39 16.09 Clear and Windy   29 19     55%   30 1008.13        
Jun 10 17:02 SSE 37 16.09 Partly Cloudy and Windy SCT040 29 19     55%   30 1008.13        
Jun 10 13:22 SSE 37 16.09 Mostly Cloudy and Windy BKN036 28 18     55%   29 1010.16        
Jun 10 13:12 S 28 16.09 Mostly Cloudy BKN036 28 18     55%   29 1010.5        
Jun 10 11:07 S 35 16.09 Clear and Windy CLR 27 18     58%   28 1010.5        
Jun 10 09:42 S 37 16.09 Clear and Windy CLR 24 17     65%   24 1011.18        
Notice The following observation data may not be complete
Jun 10 09:15   16.09 Clear CLR          %              
Notice The following observation data may not be complete
Jun 10 07:42   16.09 Clear CLR          %              
Jun 10 06:55 S 21 16.09 Clear CLR 20 16     78%     1010.8        
Jun 10 02:57 SSE 11 16.09 Clear CLR 18 16     88%     1009.82        
Jun 10 01:42 SSE 11 16.09 Clear CLR 19 15     78%     1010.5        
Jun 10 01:32 SSE 11 16.09 Clear CLR 19 15     78%     1010.5        
Jun 10 01:17 SSE 13 16.09 Clear CLR 19 15     78%     1010.5        
Notice The following observation data may not be complete
Jun 10 00:47   16.09 Clear CLR          %              
Notice The following observation data may not be complete
Jun 09 21:35 SSE 13 16.09 Clear CLR   15      %     1010.5        
Notice The following observation data may not be complete
Jun 09 20:47   16.09 Clear CLR          %              
Jun 09 20:12 SSE 15 16.09 Clear CLR 24 16     61%   24 1010.5        
Jun 09 19:07 SSE 19 16.09 Clear CLR 27 14     45%   27 1010.5        
Notice The following observation data may not be complete
Jun 09 18:47   16.09 Clear CLR          %              
Jun 09 17:26 SSE 22 16.09 Clear CLR 28 14     42%   28 1010.84        
Jun 09 16:52 SSE 24 16.09 Clear CLR 28 14     42%   28 1011.18        
Jun 09 16:22 SSE 22 16.09 Partly Cloudy SCT050 28 14     42%   28 1011.51        
Notice The following observation data may not be complete
Jun 09 16:15   16.09 Partly Cloudy SCT050          %              
Jun 09 15:15 SSE 22 16.09 Clear CLR 28 14     42%   28 1011.9        
Jun 09 15:02 SSE 26 16.09 Clear CLR 28 14     42%   28 1011.85        
Jun 09 14:52 S 20 16.09 Partly Cloudy SCT050 28 14     42%   28 1011.85        
Notice The following observation data may not be complete
Jun 09 13:47   16.09 Partly Cloudy SCT050          %              
Notice The following observation data may not be complete
Jun 09 08:55   16.09 Clear CLR          %              
Jun 09 07:15 Calm 16.09 Clear CLR 16 14     88%     1013.6        
Notice The following observation data may not be complete
Jun 09 04:57   16.09 Clear CLR          %              
Jun 09 02:07 Calm 16.09 Clear CLR 16 13     82%     1012.53        
Jun 09 01:07 Calm 16.09 Clear CLR 17 14     83%     1013.21        
Jun 08 23:42 Calm 16.09 Clear CLR 18 14     77%     1013.55        
Notice The following observation data may not be complete
Jun 08 22:42   16.09 Clear CLR          %              
Jun 08 19:32 ESE 9 16.09 Clear   26 11     39%   26 1012.87        
Jun 08 19:17 ESE 9 16.09 Clear CLR 26 10     37%   26 1013.21        
Jun 08 19:02 SSE 6 16.09 Clear CLR 26 9     34%   26 1013.21        
Jun 08 18:52 SSE 9 16.09 Clear CLR 27 10     34%   27 1013.21        
Jun 08 15:02 SSE 7 16.09 Clear CLR 27 7     28%   26 1015.58        
Jun 08 14:17 SSW 9 16.09 Clear CLR 27 8     30%   27 1015.92        
Jun 08 12:27 S 9 16.09 Clear CLR 25 8     34%   24 1017.27        
Jun 08 11:52 SSE 9 16.09 Clear CLR 25 8     34%   24 1017.61        
Notice The following observation data may not be complete
Jun 08 10:57   16.09 Clear CLR          %              
Jun 08 08:55 ENE 5 16.09 Clear CLR 20 14     68%     1018.3        
Jun 08 08:42 Calm 16.09 Clear CLR 20 15     73%     1018.29        
Jun 08 08:27 Calm 16.09 Clear   19 14     73%     1018.29        
Jun 08 07:55 Calm 16.09 Clear CLR 17 13     77%     1018.3        
Jun 08 06:57 Calm 16.09 Clear CLR 13 12     94%     1017.95        
Jun 07 21:27 ENE 6 16.09 Clear CLR 21 12     56%     1016.93        
Jun 07 21:17 ENE 6 16.09 Clear CLR 22 12     53%   22 1016.93        
Jun 07 21:12 ENE 6 16.09 Clear CLR 22 12     53%   22 1016.93        
Jun 07 18:07 ENE 15 16.09 Clear CLR 26 9     34%   26 1016.93        
Jun 07 17:07 E 11 16.09 Clear CLR 27 8     30%   27 1017.27        
Notice The following observation data may not be complete
Jun 07 15:42   16.09 Clear CLR          %              
Notice The following observation data may not be complete
Jun 07 14:42   16.09 Clear CLR          %              
Jun 07 13:37 ENE 7 16.09 Clear CLR 26 7     30%   25 1018.29        
Jun 07 13:35 E 8 16.09 Clear CLR 25 6     30%   24 1018.3        
Jun 07 12:02 NE 15 16.09 Clear CLR 25 8     34%   24 1018.96        
Jun 07 11:22 NE 13 16.09 Clear CLR 25 8     34%   24 1018.96        
Jun 07 10:47 NNE 17 16.09 Clear CLR 24 8     36%   23 1018.96        
Jun 07 09:35 ENE 13 16.09 Clear CLR 22 10     46%   21 1019        
Jun 07 09:02 ENE 13 16.09 Clear CLR 21 11     53%     1018.63        
Jun 06 15:15 NNE 18 16.09 Clear CLR 29 13     37%   28 1013.9        
Jun 06 14:12 NNE 26 16.09 Clear CLR 29 14     40%   29 1014.22        
Jun 06 13:57 N 20 16.09 Clear CLR 29 13     37%   28 1014.56        
Notice The following observation data may not be complete
Jun 06 12:42   16.09 Clear CLR          %              
Jun 06 12:37 NNE 20 16.09 Clear CLR 29 14     40%   29 1014.56        
Jun 06 11:55 NNE 15 16.09 Clear CLR 27 15     48%   27 1014.9        
Jun 06 11:32 NE 15 16.09 Clear CLR 27 17     54%   28 1014.56        
Jun 06 09:02 NNE 11 16.09 Clear CLR 23 16     65%   23 1014.22        
Jun 06 08:02 N 9 16.09 Clear CLR 21 16     73%     1013.88        
Jun 06 07:42 N 6 16.09 Clear CLR 21 16     73%     1013.55        
Jun 06 07:35 N 8 16.09 Clear CLR 20 16     78%     1013.9        
Jun 06 06:55 N 8 16.09 Clear CLR 18 16     88%     1013.2        
Jun 06 05:55 N 9 16.09 Clear CLR 17 16     94%     1012.9        
Notice The following observation data may not be complete
Jun 06 04:52   16.09 Clear CLR          %              
Notice The following observation data may not be complete
Jun 06 02:57   16.09 Clear CLR          %              
Jun 06 02:55 Calm 16.09 Clear CLR 20 17     83%     1012.2        
Jun 06 00:55 Calm 16.09 Clear CLR 20 18     88%     1011.9        
Jun 05 22:42 W 6 16.09 Clear CLR 23 19     78%   23 1011.51        
Jun 05 22:37 Calm 16.09 Clear   23 19     78%   23 1011.51        
Jun 05 21:55 Calm 16.09 Clear   23 19     78%   23 1011.2        
Jun 05 19:37 E 9 16.09 Clear CLR 29 17     48%   29 1010.16        
Jun 05 18:22 ENE 19 16.09 Clear CLR 30 16     43%   30 1009.48        
Jun 05 17:22 NE 15 16.09 Clear CLR 31 16     40%   31 1009.14        
Notice The following observation data may not be complete
Jun 05 14:15   16.09 Clear CLR          %